GFSMA_700_temp_000.txt.gz
Temp
2 2 2 1 1 1 1 0 1 1 1 1 1 1 1 1 1 1 1 1 1 1 1 1 1 1 1 1 1 2 2 2 2 3 3 3 3 3 3 3 3 4 4
1 1 1 1 1 0 0 -0 -0 -0 -0 -0 0 0 0 0 0 0 0 0 0 0 0 0 1 1 1 1 1 2 2 2 2 2 2 2 3 3 3 3 3 3 3
0 0 0 0 0 0 0 0 -0 -0 -0 -0 -0 -0 -0 -0 -0 -0 -0 -0 0 -0 0 -0 0 0 1 1 1 1 1 1 1 1 2 1 2 2 2 2 3 3 3
-0 -0 -0 -0 -1 -1 -1 -1 -1 -1 -0 -0 -1 -1 -1 -1 -1 -1 -1 -1 -1 -1 -1 -1 -1 -1 -0 0 0 0 -0 1 0 1 1 1 2 2 2 2 2 2 3
-1 -1 -1 -1 -1 -1 -1 -1 -1 -1 -1 -1 -1 -1 -2 -2 -2 -2 -2 -2 -2 -2 -2 -1 -1 -1 -1 -1 -0 0 0 0 0 -0 0 1 1 1 2 2 1 2 2
-2 -2 -1 -1 -1 -1 -1 -1 -1 -1 -2 -2 -2 -2 -2 -2 -2 -2 -3 -3 -3 -2 -3 -3 -2 -2 -2 -2 -2 -1 -0 -0 0 0 -1 0 1 1 0 1 1 1 1
-2 -2 -2 -2 -2 -2 -2 -2 -2 -2 -2 -2 -2 -2 -2 -2 -3 -3 -3 -3 -3 -3 -3 -3 -4 -4 -3 -3 -2 -2 -2 -1 -1 -0 0 -0 -0 0 0 0 0 2 1
-2 -2 -2 -2 -2 -2 -2 -2 -2 -2 -2 -2 -3 -3 -3 -4 -4 -3 -3 -3 -3 -3 -4 -3 -4 -4 -4 -4 -4 -3 -3 -2 -2 -1 -0 0 0 0 1 0 0 0 1
-2 -2 -3 -2 -2 -2 -2 -2 -2 -2 -2 -3 -3 -4 -4 -4 -4 -4 -5 -4 -4 -3 -4 -4 -4 -4 -4 -4 -4 -4 -4 -3 -2 -2 -2 -1 -0 -0 0 1 1 1 -0
-2 -3 -3 -3 -3 -3 -2 -2 -2 -3 -3 -3 -5 -5 -5 -4 -4 -4 -5 -5 -5 -5 -4 -4 -4 -4 -4 -4 -4 -4 -4 -4 -4 -3 -2 -2 -1 -1 -1 -1 0 1 1
-3 -4 -3 -3 -3 -3 -3 -3 -3 -3 -3 -3 -4 -5 -5 -6 -6 -5 -5 -5 -6 -6 -5 -4 -4 -4 -5 -5 -5 -5 -5 -5 -4 -4 -4 -3 -3 -2 -1 -1 -1 -1 -0
-4 -4 -3 -3 -3 -4 -4 -4 -4 -4 -5 -5 -6 -6 -6 -6 -7 -7 -7 -6 -6 -7 -8 -5 -5 -5 -5 -6 -6 -5 -6 -5 -5 -5 -4 -4 -4 -3 -3 -2 -2 -2 -1
-4 -4 -4 -4 -5 -5 -5 -6 -7 -8 -7 -8 -8 -8 -8 -8 -8 -8 -7 -7 -6 -7 -7 -7 -6 -6 -6 -7 -7 -6 -6 -6 -6 -5 -5 -4 -5 -5 -4 -3 -3 -2 -2
-5 -5 -5 -5 -6 -7 -8 -10 -10 -10 -10 -10 -9 -9 -9 -10 -9 -8 -9 -9 -9 -9 -9 -8 -8 -8 -8 -7 -7 -6 -7 -7 -7 -6 -6 -5 -5 -5 -5 -5 -4 -3 -3
-5 -6 -7 -8 -9 -9 -10 -10 -11 -11 -11 -10 -10 -10 -10 -10 -10 -10 -10 -10 -10 -10 -10 -10 -10 -10 -9 -8 -8 -7 -7 -7 -6 -7 -7 -7 -6 -6 -6 -6 -5 -4 -3
-7 -8 -9 -10 -10 -11 -11 -11 -11 -11 -11 -11 -11 -11 -11 -12 -11 -11 -11 -10 -11 -12 -11 -11 -11 -11 -10 -9 -8 -8 -8 -8 -7 -7 -8 -8 -8 -8 -8 -7 -6 -6 -5
-9 -10 -11 -11 -11 -11 -11 -12 -12 -12 -12 -12 -12 -12 -12 -12 -12 -12 -13 -13 -13 -13 -13 -11 -12 -12 -11 -10 -9 -9 -9 -9 -9 -8 -8 -9 -9 -9 -9 -9 -8 -7 -6
-11 -11 -12 -12 -12 -12 -12 -12 -12 -12 -13 -13 -13 -13 -13 -13 -13 -14 -14 -14 -14 -13 -13 -13 -14 -14 -13 -13 -12 -11 -10 -10 -10 -11 -10 -9 -9 -10 -10 -9 -9 -9 -8
-12 -12 -13 -13 -13 -13 -13 -13 -13 -13 -14 -14 -14 -14 -14 -14 -14 -14 -14 -14 -14 -14 -14 -14 -13 -13 -13 -13 -13 -12 -12 -12 -11 -11 -12 -11 -11 -11 -11 -10 -10 -10 -10
-13 -13 -13 -13 -13 -13 -14 -14 -15 -15 -15 -15 -15 -15 -15 -14 -14 -14 -14 -14 -14 -14 -14 -14 -14 -14 -14 -14 -13 -13 -13 -13 -12 -12 -12 -12 -12 -12 -11 -11 -10 -10 -10
-14 -14 -14 -14 -14 -15 -15 -15 -15 -16 -16 -15 -15 -15 -15 -15 -15 -15 -15 -14 -14 -14 -14 -15 -16 -15 -14 -15 -15 -15 -15 -15 -14 -15 -14 -13 -13 -13 -12 -12 -12 -11 -11
-15 -15 -15 -15 -15 -15 -15 -16 -16 -16 -16 -16 -16 -16 -15 -15 -15 -15 -15 -15 -15 -15 -15 -15 -14 -14 -14 -14 -14 -14 -14 -14 -13 -14 -14 -12 -13 -12 -13 -13 -13 -12 -11
-15 -15 -15 -15 -16 -16 -16 -17 -17 -17 -17 -16 -16 -16 -16 -16 -16 -16 -16 -15 -15 -15 -15 -15 -15 -14 -14 -14 -15 -15 -15 -15 -14 -15 -15 -14 -14 -12 -12 -12 -12 -12 -12
-15 -16 -16 -16 -16 -17 -17 -17 -17 -17 -17 -17 -17 -17 -17 -16 -16 -16 -16 -16 -15 -15 -15 -15 -15 -15 -15 -15 -15 -15 -15 -15 -15 -15 -15 -15 -15 -13 -13 -13 -12 -12 -12
-16 -16 -16 -17 -17 -17 -17 -17 -17 -17 -17 -17 -17 -17 -17 -17 -17 -17 -16 -16 -16 -16 -16 -16 -16 -16 -16 -16 -16 -16 -15 -16 -16 -16 -16 -16 -15 -15 -14 -14 -13 -13 -12
-16 -16 -17 -17 -17 -18 -18 -18 -18 -18 -18 -17 -17 -17 -17 -17 -17 -17 -17 -17 -16 -16 -16 -16 -16 -16 -16 -16 -16 -16 -16 -16 -16 -16 -16 -16 -17 -16 -15 -14 -14 -14 -13

GFSMA_700_temp_003.txt.gz
Temp
2 2 2 1 1 1 1 1 1 1 1 1 1 1 1 1 1 1 1 1 1 1 1 1 1 1 1 1 1 1 1 1 1 1 1 1 2 2 2 3 3 3 3
1 1 1 0 0 1 0 0 0 0 0 0 1 1 1 1 1 1 0 1 1 1 0 0 0 0 1 1 1 1 1 1 2 1 2 1 2 2 2 2 3 3 3
0 0 -0 -0 -0 -0 0 0 0 0 0 0 0 0 0 0 0 -0 -0 -1 1 0 0 0 0 -0 -0 0 1 1 1 2 2 2 1 1 -0 3 2 2 3 2 3
0 0 0 0 -0 -0 -0 -0 -0 -0 -0 -0 -0 -0 -1 -1 -1 -1 -1 -1 -1 -1 0 -0 -0 -0 -0 -0 -0 0 1 1 1 1 1 1 1 0 1 2 2 2 2
-0 -1 -1 -1 -1 -1 -1 -1 -1 -1 -1 -1 -1 -2 -2 -1 -1 -1 -2 -2 -1 -2 -2 -1 -1 -1 -1 -1 -1 -0 0 0 0 1 1 1 1 0 1 2 0 1 2
-0 -1 -1 -1 -1 -1 -2 -2 -1 -1 -1 -2 -2 -2 -2 -3 -2 -2 -2 -2 -2 -2 -2 -3 -2 -2 -2 -2 -2 -2 -1 -0 0 0 0 1 1 1 1 1 1 1 1
-1 -1 -2 -2 -2 -2 -2 -2 -2 -2 -2 -2 -2 -2 -2 -2 -3 -3 -2 -3 -3 -3 -3 -2 -3 -3 -3 -2 -2 -2 -2 -2 -1 -1 -0 -0 0 1 0 1 1 1 0
-2 -3 -2 -2 -2 -2 -2 -3 -3 -3 -3 -3 -3 -3 -3 -3 -3 -4 -4 -3 -3 -3 -4 -4 -4 -3 -3 -4 -3 -3 -3 -2 -2 -2 -1 -1 -0 0 0 1 0 0 -0
-3 -2 -2 -2 -3 -3 -3 -3 -3 -3 -3 -3 -3 -4 -4 -3 -4 -3 -4 -4 -4 -4 -4 -4 -4 -4 -3 -4 -4 -4 -4 -4 -3 -2 -2 -2 -1 -1 -0 -0 0 0 0
-2 -2 -2 -3 -3 -3 -4 -4 -4 -4 -4 -4 -4 -4 -5 -6 -5 -5 -4 -4 -4 -4 -4 -5 -5 -5 -3 -3 -3 -4 -4 -4 -4 -4 -3 -3 -2 -2 -1 -1 -1 -0 -0
-3 -4 -4 -4 -4 -4 -4 -4 -4 -4 -4 -4 -4 -5 -5 -5 -6 -6 -5 -4 -5 -4 -5 -4 -5 -5 -5 -4 -4 -4 -4 -5 -5 -4 -4 -3 -3 -2 -2 -1 -2 -1 -1
-4 -5 -5 -5 -5 -5 -5 -5 -6 -5 -5 -6 -6 -7 -7 -7 -8 -8 -8 -7 -7 -6 -5 -5 -6 -7 -6 -6 -5 -4 -4 -4 -5 -5 -5 -4 -4 -3 -3 -2 -2 -2 -2
-5 -5 -5 -5 -5 -5 -7 -8 -9 -9 -9 -9 -10 -9 -9 -10 -10 -10 -9 -9 -8 -7 -7 -7 -7 -8 -8 -8 -6 -6 -4 -5 -5 -5 -5 -5 -5 -4 -4 -3 -3 -3 -3
-5 -5 -6 -6 -6 -7 -8 -9 -10 -10 -11 -11 -11 -11 -11 -11 -11 -11 -10 -10 -9 -8 -8 -8 -7 -7 -9 -9 -9 -7 -7 -6 -6 -6 -5 -5 -5 -5 -5 -4 -4 -4 -3
-6 -6 -6 -7 -9 -10 -10 -10 -11 -11 -11 -11 -11 -11 -12 -11 -11 -11 -11 -10 -10 -10 -10 -9 -9 -10 -9 -10 -10 -9 -8 -8 -7 -6 -6 -6 -6 -5 -5 -5 -4 -4 -4
-7 -8 -9 -11 -12 -11 -12 -12 -12 -12 -12 -12 -12 -12 -12 -12 -12 -12 -12 -12 -12 -12 -11 -10 -10 -10 -10 -11 -11 -11 -11 -9 -8 -7 -7 -8 -7 -6 -6 -5 -5 -4 -4
-9 -10 -11 -11 -12 -12 -12 -12 -12 -12 -12 -13 -13 -13 -14 -14 -14 -15 -14 -14 -14 -14 -14 -14 -13 -13 -13 -12 -12 -12 -12 -12 -11 -9 -8 -8 -8 -8 -7 -7 -6 -6 -5
-10 -11 -12 -12 -13 -13 -13 -13 -13 -13 -13 -13 -14 -15 -14 -15 -15 -15 -15 -15 -15 -15 -15 -15 -14 -14 -13 -14 -13 -13 -13 -13 -13 -13 -12 -9 -8 -8 -9 -9 -9 -8 -7
-11 -12 -12 -13 -14 -14 -14 -14 -15 -15 -15 -15 -16 -16 -15 -15 -15 -15 -15 -15 -16 -16 -16 -16 -16 -15 -15 -15 -14 -14 -14 -14 -14 -14 -14 -12 -11 -10 -9 -10 -10 -10 -9
-13 -13 -14 -14 -15 -15 -15 -17 -16 -16 -16 -17 -17 -17 -17 -17 -17 -16 -15 -16 -16 -16 -16 -16 -16 -15 -15 -15 -15 -15 -15 -15 -14 -15 -14 -14 -13 -11 -10 -10 -10 -10 -9
-14 -15 -15 -17 -17 -17 -17 -17 -16 -16 -16 -16 -17 -18 -18 -18 -18 -16 -16 -15 -15 -16 -15 -15 -15 -15 -16 -16 -16 -16 -15 -15 -15 -15 -15 -15 -15 -15 -13 -12 -11 -11 -11
-15 -15 -17 -17 -17 -18 -18 -16 -16 -17 -17 -17 -17 -17 -18 -18 -18 -18 -15 -16 -16 -16 -16 -15 -15 -15 -16 -16 -16 -15 -15 -15 -15 -15 -15 -14 -15 -14 -13 -13 -14 -13 -11
-17 -17 -17 -18 -18 -18 -18 -16 -17 -17 -17 -17 -17 -17 -18 -18 -18 -17 -16 -16 -16 -16 -16 -16 -15 -15 -15 -15 -15 -15 -15 -15 -15 -15 -15 -15 -15 -15 -14 -13 -13 -13 -12
-17 -17 -18 -18 -16 -17 -17 -17 -17 -18 -18 -18 -18 -18 -18 -17 -17 -17 -16 -16 -16 -16 -16 -16 -16 -15 -15 -15 -15 -15 -15 -15 -15 -15 -16 -15 -15 -15 -15 -15 -13 -13 -13
-17 -17 -17 -17 -17 -17 -18 -18 -18 -18 -18 -18 -18 -18 -18 -18 -18 -17 -17 -17 -16 -16 -17 -16 -16 -16 -16 -16 -16 -16 -15 -16 -15 -15 -15 -15 -15 -15 -16 -15 -14 -14 -13
-17 -16 -17 -17 -17 -17 -18 -18 -18 -18 -18 -18 -18 -18 -18 -18 -18 -18 -18 -17 -17 -17 -17 -17 -16 -16 -16 -16 -16 -16 -16 -16 -16 -15 -15 -17 -17 -17 -17 -16 -15 -15 -14

GFSMA_700_temp_006.txt.gz
Temp
2 2 2 2 2 2 1 1 1 1 1 1 2 2 1 1 1 1 0 1 1 0 1 1 1 1 1 1 2 2 2 2 1 1 0 -0 1 1 1 1 2 2 2
2 2 1 1 1 1 1 1 1 1 2 2 1 1 2 1 1 1 0 -0 0 0 0 0 0 0 0 1 1 1 2 2 1 1 1 1 -0 1 1 0 1 2 3
1 1 1 1 1 1 1 0 1 0 1 1 1 1 1 2 2 2 1 -0 -1 -0 -0 -0 0 -0 -0 -0 0 1 1 2 2 1 1 1 -0 0 1 1 1 1 2
1 1 0 0 -0 -0 -0 -0 0 0 0 -0 -0 -1 -1 -1 0 1 1 2 -0 -1 -1 -1 -1 -1 -0 -0 -0 -0 0 1 2 2 2 1 1 1 1 0 1 1 2
-0 -0 -0 -1 -1 -1 -1 -1 -1 -1 -1 -1 -2 -2 -2 -2 -2 -2 -1 -0 0 -1 -2 -1 -1 -1 -1 -1 -1 -1 -0 -0 0 1 1 2 1 1 1 1 0 1 1
-0 -1 -1 -1 -2 -2 -2 -2 -2 -2 -2 -2 -2 -2 -2 -2 -2 -2 -3 -2 -2 -2 -1 -3 -3 -2 -2 -2 -2 -2 -1 -1 -1 -0 0 0 1 1 1 0 -0 0 1
-1 -2 -2 -2 -2 -2 -2 -2 -3 -2 -2 -2 -3 -3 -2 -2 -3 -2 -3 -4 -4 -3 -3 -2 -1 -2 -2 -3 -3 -2 -2 -2 -2 -1 -1 -1 -0 1 1 0 1 0 1
-3 -2 -3 -2 -3 -2 -2 -3 -3 -3 -3 -3 -3 -4 -3 -3 -3 -3 -3 -4 -4 -3 -4 -4 -4 -4 -3 -3 -3 -3 -3 -2 -2 -2 -2 -1 -1 -1 -0 0 0 -0 0
-3 -2 -3 -3 -3 -3 -3 -4 -4 -4 -4 -4 -4 -4 -5 -4 -4 -3 -3 -3 -4 -4 -3 -4 -4 -4 -5 -4 -4 -3 -4 -4 -3 -3 -3 -2 -2 -2 -1 -1 -0 -0 0
-3 -3 -4 -4 -5 -5 -5 -5 -5 -5 -5 -5 -4 -4 -5 -5 -5 -4 -4 -4 -4 -5 -5 -5 -5 -4 -5 -5 -5 -6 -5 -4 -4 -4 -4 -3 -3 -2 -2 -2 -1 -1 -0
-3 -5 -5 -5 -5 -5 -5 -5 -5 -4 -4 -5 -5 -5 -6 -7 -8 -9 -7 -6 -5 -6 -5 -5 -5 -5 -4 -5 -5 -5 -6 -5 -5 -4 -4 -4 -4 -3 -3 -2 -2 -2 -1
-5 -5 -5 -5 -5 -5 -6 -6 -6 -6 -6 -7 -8 -9 -9 -9 -9 -9 -9 -8 -8 -7 -8 -6 -6 -5 -5 -5 -6 -7 -6 -6 -6 -5 -5 -5 -5 -4 -4 -3 -2 -2 -2
-5 -6 -5 -6 -6 -6 -7 -7 -8 -9 -9 -10 -10 -11 -11 -11 -11 -11 -11 -10 -10 -9 -9 -9 -7 -8 -8 -7 -7 -8 -8 -7 -5 -6 -5 -5 -5 -5 -4 -4 -3 -3 -3
-6 -6 -7 -7 -7 -7 -8 -8 -9 -10 -11 -12 -11 -11 -11 -11 -11 -11 -11 -11 -11 -10 -10 -9 -9 -9 -7 -7 -8 -8 -8 -8 -7 -6 -6 -5 -6 -5 -5 -5 -4 -4 -3
-7 -7 -7 -8 -8 -9 -10 -10 -12 -12 -12 -12 -12 -12 -12 -12 -12 -12 -12 -11 -12 -11 -10 -10 -10 -10 -9 -9 -9 -9 -9 -9 -9 -8 -7 -6 -6 -6 -5 -5 -5 -4 -4
-7 -8 -8 -9 -10 -10 -11 -12 -12 -13 -13 -13 -13 -13 -13 -13 -13 -13 -13 -13 -13 -13 -11 -12 -12 -12 -11 -11 -10 -9 -10 -10 -10 -9 -9 -8 -8 -7 -7 -6 -6 -5 -5
-8 -9 -10 -11 -11 -12 -13 -13 -13 -13 -13 -14 -14 -14 -13 -13 -13 -14 -14 -14 -14 -15 -14 -12 -13 -13 -13 -13 -13 -12 -11 -12 -12 -11 -11 -10 -9 -8 -8 -7 -7 -6 -6
-9 -10 -11 -12 -13 -13 -13 -14 -14 -14 -14 -14 -14 -15 -15 -15 -15 -15 -15 -14 -14 -15 -15 -15 -15 -14 -14 -13 -13 -13 -13 -13 -13 -13 -12 -12 -11 -9 -9 -8 -7 -7 -6
-11 -12 -13 -14 -14 -14 -15 -16 -16 -16 -16 -16 -16 -16 -16 -16 -16 -16 -16 -16 -16 -16 -16 -16 -15 -15 -14 -14 -14 -14 -13 -13 -13 -13 -13 -13 -13 -13 -11 -10 -9 -9 -8
-13 -14 -14 -15 -16 -17 -17 -17 -17 -16 -16 -16 -16 -16 -17 -17 -17 -17 -17 -17 -17 -17 -17 -16 -15 -15 -15 -15 -14 -14 -14 -14 -14 -14 -14 -14 -14 -14 -13 -12 -10 -10 -9
-15 -15 -16 -16 -17 -17 -17 -17 -16 -16 -16 -17 -17 -17 -17 -17 -17 -17 -17 -17 -17 -17 -17 -17 -16 -16 -15 -15 -16 -16 -16 -15 -15 -15 -15 -14 -15 -14 -13 -13 -13 -12 -10
-15 -16 -16 -17 -17 -17 -17 -17 -16 -17 -17 -17 -17 -17 -17 -18 -18 -18 -19 -18 -18 -18 -17 -16 -16 -16 -15 -15 -15 -15 -15 -15 -15 -15 -15 -14 -15 -14 -14 -14 -13 -13 -12
-15 -16 -17 -17 -17 -17 -17 -17 -17 -18 -18 -18 -18 -18 -18 -18 -18 -18 -19 -19 -18 -17 -17 -16 -16 -16 -16 -16 -16 -16 -16 -16 -16 -16 -16 -15 -15 -15 -15 -15 -15 -14 -13
-16 -16 -17 -17 -17 -17 -17 -18 -18 -18 -18 -18 -18 -18 -18 -18 -18 -19 -19 -18 -18 -18 -17 -17 -17 -16 -16 -16 -16 -16 -16 -16 -16 -16 -16 -15 -15 -14 -15 -15 -14 -15 -15
-16 -17 -17 -17 -17 -17 -17 -17 -17 -18 -18 -18 -19 -19 -19 -19 -19 -19 -19 -18 -18 -18 -18 -18 -17 -17 -16 -16 -16 -16 -16 -16 -15 -15 -16 -16 -15 -15 -15 -15 -15 -14 -14
-17 -17 -17 -17 -17 -17 -17 -18 -18 -19 -19 -19 -19 -19 -20 -20 -19 -20 -19 -19 -18 -18 -17 -17 -17 -17 -17 -17 -17 -17 -16 -16 -16 -16 -16 -17 -17 -17 -16 -16 -15 -15 -15

GFSMA_700_temp_009.txt.gz
Temp
3 2 2 2 1 1 1 1 1 1 1 1 2 2 2 2 2 2 1 1 0 -0 -0 -0 0 0 -0 0 1 1 1 2 2 2 2 2 1 0 -0 1 1 1 2
2 2 1 1 1 1 1 1 0 0 1 1 1 1 2 2 2 2 2 2 1 1 -0 -1 -1 -1 -1 -1 -0 0 1 1 1 2 2 1 1 1 -0 1 1 1 1
1 1 1 0 0 0 0 -0 -0 -0 -0 -0 -0 -0 -0 1 1 2 1 1 1 1 1 0 -0 -1 -1 -1 -1 -1 -0 0 1 1 1 1 1 1 -0 0 0 1 -0
1 1 1 0 0 -0 -0 -1 -1 -0 -0 -0 -1 -1 -1 -1 -1 -0 0 0 -1 -0 -0 -0 -0 -1 -1 -1 -1 -1 -1 -0 0 1 1 1 1 0 0 1 0 -0 0
-0 -1 -1 0 -0 -1 -1 -1 -1 -1 -1 -1 -1 -1 -2 -1 -1 -2 -2 -2 -2 -1 -2 -1 -1 -1 -1 -1 -1 -1 -2 -1 -1 -0 0 1 0 0 0 0 0 0 0
0 -1 -2 -2 -2 -2 -1 -1 -2 -2 -3 -3 -3 -2 -2 -2 -2 -2 -2 -2 -3 -4 -3 -2 -2 -1 -2 -3 -3 -2 -2 -2 -2 -1 -1 -0 -0 -0 -0 -0 1 0 0
-2 -1 -1 -2 -2 -2 -1 -2 -2 -3 -3 -3 -3 -3 -3 -3 -2 -2 -2 -2 -3 -3 -4 -4 -4 -4 -3 -3 -3 -4 -3 -3 -3 -2 -2 -1 -1 -1 -1 -1 -0 -1 0
-3 -2 -2 -2 -2 -2 -3 -3 -3 -3 -3 -4 -4 -4 -4 -3 -3 -3 -3 -3 -3 -3 -3 -4 -4 -4 -3 -4 -4 -3 -4 -4 -3 -3 -3 -2 -2 -1 -1 -1 -0 -0 -0
-1 -2 -2 -3 -3 -4 -4 -4 -5 -5 -4 -4 -5 -5 -5 -4 -4 -4 -4 -4 -3 -3 -3 -4 -5 -5 -4 -4 -4 -5 -4 -4 -5 -4 -3 -3 -3 -2 -2 -2 -1 -1 -1
-2 -2 -3 -3 -4 -5 -6 -5 -5 -5 -5 -5 -5 -6 -6 -6 -6 -5 -5 -5 -5 -5 -5 -4 -4 -5 -5 -5 -5 -5 -5 -5 -5 -5 -4 -3 -3 -3 -3 -2 -2 -2 -1
-4 -4 -5 -5 -6 -6 -6 -6 -5 -6 -6 -6 -6 -7 -8 -8 -9 -9 -7 -7 -7 -7 -7 -6 -6 -6 -6 -6 -6 -5 -5 -5 -5 -6 -5 -4 -4 -4 -3 -3 -3 -3 -2
-5 -5 -5 -6 -6 -6 -6 -6 -7 -7 -8 -8 -9 -10 -11 -11 -11 -11 -11 -9 -9 -8 -9 -9 -9 -8 -8 -8 -7 -6 -6 -5 -5 -6 -6 -6 -5 -4 -4 -4 -3 -3 -3
-6 -6 -6 -7 -7 -7 -7 -8 -8 -9 -9 -10 -10 -11 -12 -12 -12 -12 -12 -11 -11 -10 -10 -10 -10 -10 -9 -9 -8 -7 -6 -6 -6 -6 -6 -7 -6 -5 -5 -5 -4 -4 -3
-6 -7 -7 -7 -8 -8 -8 -9 -9 -10 -11 -12 -12 -12 -12 -12 -12 -12 -12 -12 -11 -11 -11 -11 -10 -11 -10 -10 -10 -9 -8 -8 -8 -8 -7 -7 -7 -7 -6 -5 -5 -4 -4
-7 -8 -8 -8 -9 -9 -10 -10 -11 -11 -12 -12 -13 -13 -13 -13 -13 -13 -13 -13 -13 -12 -11 -11 -11 -12 -11 -11 -11 -10 -9 -8 -8 -8 -8 -7 -7 -7 -7 -6 -6 -5 -5
-8 -9 -10 -10 -10 -11 -11 -12 -13 -13 -13 -14 -14 -14 -14 -14 -14 -13 -13 -13 -13 -14 -13 -12 -12 -12 -13 -13 -12 -11 -10 -10 -9 -9 -9 -9 -9 -8 -7 -7 -7 -6 -6
-10 -10 -10 -11 -11 -12 -13 -14 -14 -14 -14 -14 -15 -15 -15 -15 -15 -14 -14 -14 -14 -14 -14 -14 -14 -13 -12 -13 -13 -13 -11 -10 -10 -10 -10 -10 -9 -8 -8 -7 -7 -7 -7
-10 -10 -11 -12 -13 -14 -14 -15 -15 -15 -15 -15 -16 -16 -16 -16 -16 -16 -16 -15 -15 -15 -15 -15 -14 -14 -14 -13 -14 -14 -13 -12 -12 -12 -12 -11 -10 -9 -8 -8 -9 -8 -7
-12 -12 -11 -13 -13 -15 -16 -16 -16 -16 -16 -17 -17 -17 -17 -17 -17 -17 -17 -16 -16 -16 -16 -16 -15 -15 -16 -15 -15 -14 -14 -13 -13 -13 -13 -12 -12 -11 -10 -10 -9 -9 -9
-13 -13 -13 -13 -15 -15 -16 -16 -16 -17 -17 -17 -17 -17 -17 -17 -17 -18 -18 -17 -17 -17 -17 -17 -17 -17 -17 -16 -16 -16 -15 -15 -14 -13 -13 -13 -13 -13 -12 -11 -10 -9 -10
-13 -13 -14 -14 -15 -16 -16 -17 -17 -17 -17 -17 -17 -17 -17 -17 -18 -18 -18 -18 -18 -17 -17 -17 -17 -17 -16 -16 -16 -15 -15 -14 -15 -15 -14 -14 -14 -14 -13 -12 -11 -11 -10
-13 -15 -15 -14 -15 -16 -17 -17 -17 -17 -17 -17 -18 -18 -18 -18 -18 -18 -18 -18 -18 -18 -18 -18 -17 -17 -16 -16 -16 -16 -15 -15 -15 -15 -15 -15 -15 -14 -14 -14 -14 -13 -13
-14 -14 -14 -15 -16 -17 -17 -17 -17 -17 -18 -18 -18 -18 -18 -18 -19 -18 -18 -18 -19 -19 -19 -19 -18 -17 -17 -17 -16 -16 -16 -16 -16 -15 -15 -15 -15 -15 -15 -15 -15 -15 -13
-14 -14 -15 -15 -17 -17 -17 -17 -17 -17 -18 -18 -18 -19 -19 -19 -19 -19 -19 -19 -19 -19 -19 -19 -19 -18 -17 -17 -17 -16 -16 -16 -16 -15 -15 -15 -15 -15 -15 -15 -14 -15 -14
-14 -15 -15 -16 -17 -17 -17 -17 -17 -17 -18 -18 -19 -19 -19 -19 -20 -20 -20 -19 -19 -19 -19 -19 -18 -17 -17 -17 -17 -17 -17 -17 -16 -16 -16 -15 -15 -15 -15 -15 -14 -14 -14
-15 -15 -16 -17 -16 -16 -17 -17 -17 -18 -18 -18 -18 -19 -19 -20 -20 -19 -20 -20 -19 -19 -19 -19 -18 -18 -18 -18 -17 -17 -17 -16 -16 -16 -16 -16 -16 -15 -15 -15 -15 -15 -15

GFSMA_700_temp_015.txt.gz
Temp
2 2 1 1 1 0 -0 -0 -0 -0 -0 -0 -0 0 1 1 1 1 1 1 1 1 1 0 0 0 1 1 1 0 0 1 1 1 1 1 1 2 1 1 1 1 1
2 1 1 1 0 -0 -0 -1 -1 -1 -0 -0 0 -0 -0 -0 0 0 0 1 1 1 1 1 0 -0 -1 0 1 1 1 0 -0 0 1 1 1 1 1 1 0 1 1
2 1 1 0 0 -0 -1 -1 -1 -1 -1 -0 -0 0 0 -0 -0 -1 -1 -0 -0 -0 -0 0 0 0 -0 -1 -1 -0 1 1 0 0 0 0 0 1 1 1 1 1 1
1 1 0 -0 -1 -1 -1 -2 -2 -1 -1 -1 -1 -1 -1 -1 -1 -1 -1 -1 -1 -1 -2 -2 -1 -1 -1 -0 0 -1 -1 0 0 -0 -0 -0 -0 -0 0 1 1 1 1
-0 -1 -1 -1 -2 -2 -2 -2 -2 -2 -2 -2 -2 -2 -2 -2 -2 -1 -1 -2 -2 -2 -2 -2 -3 -2 -1 -1 -1 -1 -1 -1 -0 -0 -0 -1 -1 -1 0 0 1 1 0
-1 -1 -2 -2 -3 -2 -2 -2 -2 -2 -2 -2 -3 -3 -3 -3 -3 -3 -3 -3 -3 -3 -3 -3 -3 -3 -3 -2 -1 -2 -2 -1 -1 -1 -0 -0 -1 -1 -1 0 0 1 0
-1 -2 -2 -2 -2 -2 -3 -3 -2 -3 -3 -3 -3 -3 -4 -4 -4 -4 -4 -4 -4 -4 -4 -4 -3 -3 -3 -3 -2 -2 -2 -2 -2 -2 -2 -1 -0 -1 -1 -1 -0 0 0
-3 -3 -3 -3 -2 -2 -2 -2 -4 -4 -4 -5 -5 -4 -4 -4 -4 -4 -5 -5 -4 -4 -5 -4 -4 -4 -4 -4 -4 -3 -2 -2 -2 -2 -2 -2 -2 -1 -1 -2 -1 -1 -0
-2 -2 -2 -2 -3 -4 -5 -5 -5 -6 -6 -6 -6 -6 -6 -6 -6 -6 -5 -5 -5 -5 -5 -5 -5 -5 -5 -5 -5 -4 -4 -3 -3 -2 -3 -3 -2 -2 -1 -2 -2 -2 -1
-2 -2 -4 -5 -5 -6 -6 -6 -6 -7 -7 -7 -7 -7 -7 -8 -7 -7 -7 -7 -6 -6 -6 -6 -6 -6 -6 -6 -6 -6 -5 -4 -4 -3 -3 -3 -3 -3 -2 -2 -2 -2 -2
-5 -6 -5 -5 -7 -6 -7 -7 -8 -8 -8 -8 -8 -8 -8 -8 -8 -9 -8 -9 -9 -9 -9 -9 -9 -9 -8 -8 -7 -7 -7 -6 -5 -5 -4 -4 -4 -3 -3 -3 -3 -2 -3
-5 -6 -5 -6 -7 -8 -8 -8 -9 -9 -9 -10 -10 -9 -10 -10 -11 -11 -12 -12 -13 -10 -11 -11 -12 -12 -11 -11 -10 -10 -9 -9 -7 -6 -5 -5 -5 -5 -4 -3 -3 -3 -3
-7 -6 -7 -7 -9 -9 -10 -10 -10 -10 -10 -10 -10 -11 -12 -12 -13 -13 -14 -14 -14 -12 -12 -12 -12 -13 -12 -12 -11 -11 -10 -10 -10 -9 -7 -6 -6 -6 -6 -5 -4 -4 -4
-7 -7 -8 -9 -10 -11 -11 -12 -11 -11 -10 -10 -12 -14 -13 -14 -14 -14 -15 -14 -14 -14 -13 -13 -13 -13 -13 -13 -12 -12 -11 -11 -10 -10 -9 -8 -8 -7 -6 -7 -5 -5 -4
-8 -10 -10 -10 -10 -11 -11 -12 -12 -12 -11 -13 -13 -14 -14 -14 -15 -15 -15 -15 -15 -15 -14 -13 -14 -14 -14 -13 -13 -13 -13 -12 -11 -11 -10 -9 -9 -8 -7 -7 -5 -6 -5
-10 -11 -11 -11 -12 -12 -13 -13 -13 -13 -14 -14 -14 -16 -15 -14 -15 -15 -16 -16 -16 -16 -15 -15 -14 -14 -14 -14 -14 -14 -13 -13 -12 -11 -11 -10 -10 -9 -9 -8 -7 -7 -6
-11 -12 -12 -12 -12 -12 -13 -14 -13 -14 -14 -14 -15 -16 -16 -16 -16 -16 -16 -16 -16 -17 -16 -16 -15 -14 -14 -15 -14 -14 -14 -13 -12 -12 -12 -11 -11 -10 -10 -9 -8 -8 -6
-12 -12 -12 -13 -13 -14 -14 -14 -14 -15 -15 -15 -16 -17 -16 -16 -16 -16 -16 -16 -16 -17 -17 -17 -16 -15 -15 -15 -15 -15 -15 -14 -13 -13 -12 -12 -11 -11 -10 -9 -9 -9 -9
-12 -13 -13 -13 -14 -14 -15 -15 -15 -15 -15 -16 -16 -17 -16 -16 -16 -16 -17 -17 -17 -17 -17 -17 -17 -17 -16 -16 -16 -16 -15 -14 -14 -13 -13 -12 -12 -12 -11 -11 -10 -9 -9
-13 -13 -14 -13 -14 -14 -15 -16 -16 -16 -16 -17 -17 -17 -17 -17 -17 -17 -17 -17 -17 -17 -18 -18 -18 -18 -18 -17 -17 -17 -16 -16 -14 -14 -14 -13 -12 -13 -12 -13 -12 -10 -9
-13 -14 -14 -14 -14 -15 -16 -16 -16 -16 -16 -17 -17 -17 -17 -17 -17 -18 -18 -18 -18 -18 -19 -19 -18 -18 -18 -18 -18 -17 -17 -16 -16 -15 -15 -15 -14 -13 -13 -12 -12 -12 -12
-13 -13 -14 -15 -15 -16 -16 -16 -16 -16 -16 -16 -16 -17 -17 -17 -17 -18 -18 -18 -19 -19 -19 -20 -19 -19 -19 -19 -18 -18 -18 -17 -16 -16 -15 -15 -15 -14 -13 -13 -13 -13 -13
-13 -14 -14 -15 -16 -16 -16 -16 -16 -16 -16 -16 -17 -17 -17 -17 -17 -18 -19 -19 -19 -20 -20 -20 -20 -20 -20 -20 -19 -18 -18 -17 -16 -16 -16 -15 -15 -15 -15 -14 -14 -14 -13
-14 -14 -15 -16 -16 -16 -16 -16 -16 -16 -16 -16 -17 -17 -17 -17 -18 -18 -19 -19 -20 -20 -21 -21 -21 -20 -19 -19 -19 -19 -18 -17 -17 -16 -16 -15 -15 -15 -14 -14 -14 -14 -14
-15 -15 -16 -16 -16 -16 -16 -16 -16 -16 -16 -16 -17 -17 -17 -17 -18 -19 -19 -20 -20 -21 -21 -21 -21 -20 -21 -19 -19 -19 -18 -17 -17 -16 -16 -15 -15 -15 -15 -14 -13 -13 -13
-15 -16 -16 -16 -16 -16 -16 -16 -16 -16 -16 -16 -17 -17 -17 -18 -18 -19 -19 -20 -20 -20 -20 -20 -20 -20 -20 -19 -19 -19 -18 -17 -17 -16 -16 -16 -15 -15 -15 -15 -15 -14 -14

GFSMA_700_temp_018.txt.gz
Temp
2 2 1 1 0 0 -0 -0 -0 -0 -0 -0 -0 -0 0 0 0 1 1 1 1 1 1 1 1 1 1 2 2 1 0 1 1 1 1 1 1 1 1 1 1 1 1
1 1 1 0 -0 -1 -1 -1 -1 -1 -1 -1 -1 -1 -1 -1 -0 -0 0 0 1 1 1 1 1 1 0 -0 0 2 2 1 0 1 1 1 1 1 1 1 1 1 1
1 0 0 -0 -0 -1 -1 -2 -2 -1 -1 -1 -1 -1 -1 -1 -1 -1 -1 -1 -0 -0 -0 0 0 1 1 0 -1 -1 0 1 1 1 1 1 1 0 1 1 1 1 0
0 -0 -1 -1 -2 -2 -2 -2 -2 -2 -2 -2 -1 -2 -2 -2 -2 -2 -2 -2 -2 -1 -1 -1 -1 -0 0 0 0 -1 -1 -1 0 1 1 1 0 0 0 0 1 1 1
-1 -1 -2 -2 -2 -2 -2 -2 -3 -3 -3 -2 -2 -2 -3 -3 -3 -3 -3 -3 -3 -2 -2 -2 -2 -2 -1 -1 -0 -0 -1 -2 -2 -1 0 1 1 1 0 0 0 0 0
-1 -1 -2 -2 -2 -2 -2 -2 -3 -3 -3 -2 -2 -2 -3 -3 -4 -4 -4 -4 -4 -4 -4 -3 -3 -3 -3 -2 -2 -1 -1 -2 -2 -2 -2 -1 0 0 0 0 0 0 1
-2 -2 -2 -2 -2 -2 -3 -3 -3 -2 -2 -2 -2 -3 -3 -4 -4 -4 -5 -5 -5 -5 -5 -5 -4 -4 -4 -3 -3 -3 -2 -2 -2 -2 -2 -2 -2 -0 -1 -0 -0 0 0
-2 -2 -2 -2 -2 -2 -2 -3 -4 -4 -5 -5 -5 -5 -5 -5 -5 -5 -5 -6 -6 -6 -6 -6 -5 -5 -5 -5 -4 -4 -3 -3 -3 -2 -3 -3 -2 -3 -2 -1 -1 -0 0
-1 -1 -1 -1 -2 -3 -3 -4 -5 -6 -6 -7 -7 -7 -7 -7 -8 -7 -7 -7 -7 -7 -7 -7 -6 -6 -6 -5 -5 -5 -4 -4 -4 -3 -3 -3 -3 -3 -3 -2 -2 -1 -1
-2 -2 -3 -3 -4 -5 -6 -6 -6 -7 -8 -8 -8 -9 -9 -9 -9 -9 -9 -9 -9 -8 -8 -8 -8 -8 -7 -7 -6 -6 -6 -5 -5 -4 -4 -4 -4 -4 -3 -3 -3 -3 -2
-3 -4 -5 -5 -6 -6 -7 -7 -8 -8 -9 -9 -10 -10 -10 -10 -10 -10 -9 -9 -10 -10 -10 -11 -11 -11 -10 -9 -8 -7 -7 -6 -6 -5 -5 -4 -4 -4 -4 -4 -3 -3 -3
-5 -6 -6 -7 -7 -7 -8 -9 -9 -10 -11 -11 -10 -10 -11 -10 -10 -10 -11 -12 -13 -12 -12 -12 -12 -13 -12 -12 -11 -10 -10 -10 -9 -7 -6 -5 -5 -4 -5 -5 -5 -4 -3
-5 -6 -6 -7 -8 -9 -10 -10 -11 -11 -11 -11 -12 -11 -11 -11 -12 -12 -13 -14 -15 -14 -13 -14 -14 -14 -13 -13 -13 -12 -12 -11 -11 -11 -10 -8 -6 -5 -5 -5 -6 -5 -4
-6 -6 -6 -8 -9 -10 -11 -12 -12 -12 -12 -13 -12 -12 -12 -13 -14 -14 -15 -15 -14 -15 -14 -14 -14 -15 -14 -14 -13 -13 -12 -12 -12 -11 -11 -10 -9 -7 -6 -6 -6 -6 -5
-7 -7 -8 -10 -11 -12 -12 -12 -13 -13 -13 -13 -14 -14 -14 -15 -15 -15 -15 -16 -17 -16 -14 -14 -14 -14 -15 -15 -14 -14 -13 -13 -12 -12 -11 -11 -10 -9 -8 -7 -7 -7 -7
-8 -9 -11 -12 -12 -13 -13 -13 -14 -15 -14 -15 -15 -15 -15 -15 -15 -16 -16 -16 -17 -17 -16 -15 -15 -15 -15 -15 -15 -15 -14 -14 -13 -12 -12 -12 -11 -10 -10 -10 -9 -8 -8
-10 -11 -11 -12 -13 -13 -14 -14 -14 -15 -15 -15 -15 -15 -15 -16 -16 -16 -16 -16 -17 -17 -17 -16 -16 -15 -15 -16 -15 -15 -15 -15 -14 -13 -12 -12 -12 -11 -11 -10 -11 -10 -8
-10 -11 -12 -12 -13 -14 -14 -14 -15 -15 -15 -15 -15 -15 -16 -16 -16 -16 -17 -17 -17 -17 -17 -17 -16 -16 -16 -16 -17 -16 -16 -16 -15 -15 -13 -13 -12 -12 -11 -11 -11 -11 -10
-11 -12 -12 -13 -14 -14 -14 -14 -15 -15 -15 -15 -16 -16 -16 -16 -16 -16 -17 -17 -17 -17 -18 -18 -17 -17 -17 -17 -17 -17 -17 -17 -16 -15 -15 -14 -13 -12 -12 -12 -12 -12 -10
-12 -12 -12 -13 -14 -14 -15 -15 -15 -15 -16 -16 -16 -17 -16 -16 -16 -17 -17 -17 -17 -17 -18 -18 -18 -18 -18 -18 -18 -18 -18 -17 -17 -16 -15 -14 -14 -13 -12 -13 -12 -11 -11
-12 -13 -13 -13 -15 -15 -15 -15 -16 -16 -16 -16 -16 -16 -16 -16 -17 -17 -17 -17 -18 -18 -19 -19 -19 -19 -19 -19 -19 -19 -19 -18 -17 -17 -16 -16 -15 -13 -13 -13 -13 -12 -11
-13 -13 -13 -14 -14 -15 -16 -16 -16 -16 -16 -16 -16 -16 -16 -16 -17 -17 -17 -18 -18 -19 -20 -20 -20 -20 -20 -20 -20 -20 -19 -19 -18 -18 -17 -16 -16 -15 -13 -13 -13 -13 -13
-13 -13 -14 -15 -15 -16 -16 -16 -16 -16 -16 -16 -16 -16 -16 -17 -17 -17 -18 -18 -19 -20 -21 -21 -21 -21 -20 -20 -20 -20 -20 -19 -19 -18 -17 -17 -16 -16 -15 -13 -13 -13 -13
-14 -14 -14 -15 -16 -16 -16 -16 -16 -16 -16 -16 -16 -16 -16 -17 -17 -17 -18 -18 -19 -20 -21 -21 -21 -21 -21 -21 -20 -20 -20 -20 -19 -18 -18 -17 -17 -16 -16 -15 -14 -13 -13
-14 -15 -15 -16 -16 -16 -16 -16 -16 -16 -16 -16 -17 -17 -17 -17 -17 -18 -18 -18 -19 -20 -21 -21 -21 -21 -21 -21 -21 -20 -20 -20 -19 -18 -18 -17 -17 -17 -16 -15 -15 -15 -15
-15 -15 -15 -16 -16 -16 -16 -16 -16 -16 -17 -17 -17 -17 -17 -17 -18 -18 -18 -19 -19 -20 -21 -21 -21 -21 -20 -20 -20 -20 -20 -20 -19 -18 -18 -17 -17 -16 -16 -16 -15 -15 -15

GFSMA_700_temp_021.txt.gz
Temp
1 1 1 1 0 -0 -0 -1 -1 -0 -1 -0 0 0 0 0 1 1 1 1 1 1 1 1 1 1 1 1 1 2 2 1 1 1 1 1 1 2 2 2 1 1 1
1 1 1 0 -0 -1 -1 -2 -2 -1 -1 -1 -0 -0 -0 0 0 0 -0 0 0 0 0 1 1 1 1 1 1 1 1 2 1 0 1 1 1 1 1 2 2 1 1
1 0 -0 -1 -1 -1 -2 -2 -2 -2 -2 -2 -1 -1 -1 -1 -1 -1 -1 -1 -1 -0 -0 -0 -1 -0 0 0 1 0 0 1 1 1 -0 -0 0 1 1 1 1 1 1
-0 -0 -2 -1 -1 -2 -2 -2 -2 -2 -2 -2 -2 -2 -2 -2 -2 -2 -2 -2 -2 -2 -2 -2 -2 -2 -1 -1 -0 0 0 -0 0 0 1 0 -1 -1 -0 0 1 1 1
-1 -1 -2 -2 -2 -2 -2 -2 -2 -2 -2 -2 -2 -2 -2 -2 -3 -3 -3 -3 -3 -3 -3 -3 -3 -3 -3 -2 -2 -1 -1 -0 -1 -1 -1 0 0 -1 -1 -1 -0 -0 0
-1 -1 -1 -1 -2 -2 -2 -2 -2 -2 -3 -2 -2 -2 -2 -3 -3 -3 -4 -4 -4 -4 -4 -4 -4 -3 -3 -4 -3 -3 -2 -1 -1 -1 -2 -2 -1 0 -1 -1 -1 -1 -0
-1 -2 -2 -2 -2 -2 -2 -2 -3 -3 -3 -3 -3 -2 -3 -3 -4 -5 -5 -5 -5 -5 -5 -5 -5 -5 -5 -4 -4 -4 -3 -3 -3 -2 -2 -2 -2 -2 -1 -2 -3 -2 -1
-2 -1 -2 -2 -2 -3 -3 -3 -3 -3 -3 -3 -4 -4 -4 -5 -5 -6 -7 -7 -7 -7 -7 -7 -7 -7 -7 -6 -6 -5 -5 -5 -4 -4 -3 -3 -3 -3 -3 -2 -2 -2 -2
-1 -2 -2 -3 -3 -3 -4 -4 -4 -5 -5 -6 -7 -8 -8 -8 -8 -8 -8 -8 -8 -8 -8 -8 -8 -8 -8 -8 -7 -7 -6 -6 -5 -5 -4 -4 -4 -4 -3 -3 -2 -2 -2
-2 -2 -2 -3 -4 -5 -5 -6 -6 -7 -7 -8 -9 -10 -10 -10 -11 -10 -10 -10 -10 -9 -9 -9 -9 -8 -8 -8 -8 -8 -8 -7 -7 -6 -5 -5 -4 -4 -4 -4 -3 -2 -2
-3 -4 -5 -5 -6 -6 -7 -7 -7 -8 -9 -10 -11 -11 -11 -11 -11 -11 -11 -11 -10 -10 -10 -11 -11 -10 -11 -11 -11 -11 -10 -10 -9 -8 -7 -6 -5 -5 -5 -4 -4 -4 -3
-4 -5 -5 -5 -6 -6 -7 -8 -10 -10 -11 -12 -12 -12 -12 -12 -12 -12 -12 -12 -11 -11 -12 -12 -12 -13 -13 -13 -13 -13 -12 -12 -11 -11 -9 -8 -6 -6 -5 -5 -5 -4 -4
-4 -5 -6 -7 -8 -8 -10 -11 -11 -12 -12 -12 -12 -12 -12 -13 -13 -13 -14 -14 -14 -13 -13 -13 -13 -14 -14 -15 -14 -14 -13 -13 -12 -12 -11 -10 -9 -7 -6 -5 -5 -5 -4
-6 -7 -7 -8 -8 -9 -10 -11 -12 -12 -13 -13 -13 -13 -14 -14 -14 -15 -15 -15 -15 -14 -14 -14 -14 -14 -15 -15 -15 -14 -14 -14 -13 -13 -13 -12 -11 -10 -9 -7 -6 -6 -5
-7 -7 -8 -8 -9 -10 -11 -12 -13 -13 -14 -14 -14 -14 -14 -15 -15 -15 -15 -16 -16 -15 -15 -14 -14 -15 -15 -15 -15 -15 -15 -14 -14 -14 -13 -13 -12 -12 -11 -10 -8 -7 -6
-7 -8 -9 -10 -11 -12 -12 -13 -13 -14 -14 -14 -15 -15 -15 -15 -15 -16 -16 -16 -17 -16 -16 -16 -15 -15 -15 -15 -15 -15 -15 -15 -14 -14 -14 -13 -13 -12 -12 -11 -10 -9 -8
-9 -9 -10 -11 -12 -12 -12 -13 -14 -14 -14 -15 -15 -15 -15 -15 -15 -16 -16 -16 -16 -17 -17 -15 -16 -16 -16 -16 -16 -16 -16 -15 -15 -14 -14 -14 -13 -13 -12 -12 -11 -10 -9
-9 -10 -10 -11 -12 -12 -13 -14 -14 -14 -15 -15 -15 -15 -15 -16 -16 -16 -16 -16 -17 -17 -17 -16 -16 -16 -16 -16 -16 -16 -17 -16 -16 -15 -15 -14 -14 -13 -13 -12 -12 -11 -11
-10 -10 -11 -12 -12 -13 -14 -15 -15 -15 -15 -15 -15 -15 -16 -16 -16 -16 -16 -16 -17 -17 -17 -17 -16 -17 -17 -17 -17 -17 -17 -17 -17 -16 -16 -15 -14 -14 -13 -13 -13 -12 -11
-11 -12 -12 -13 -13 -13 -14 -15 -15 -15 -16 -16 -16 -16 -16 -16 -16 -16 -16 -16 -17 -17 -18 -18 -18 -18 -19 -19 -19 -19 -18 -19 -18 -17 -17 -16 -15 -14 -13 -13 -13 -12 -12
-12 -12 -13 -13 -14 -14 -15 -15 -16 -16 -16 -16 -16 -16 -16 -16 -16 -16 -17 -17 -17 -18 -18 -19 -19 -19 -19 -20 -20 -20 -20 -19 -19 -18 -18 -17 -16 -15 -14 -13 -13 -13 -12
-12 -13 -13 -14 -14 -15 -15 -16 -16 -16 -16 -16 -16 -16 -16 -16 -16 -16 -17 -17 -18 -18 -19 -19 -20 -21 -21 -21 -21 -20 -20 -19 -19 -19 -18 -18 -17 -16 -15 -14 -13 -13 -13
-13 -13 -14 -14 -14 -15 -16 -16 -16 -16 -16 -16 -16 -16 -16 -16 -16 -17 -17 -17 -18 -19 -19 -20 -20 -21 -21 -21 -21 -21 -21 -20 -20 -20 -19 -18 -18 -17 -16 -16 -14 -13 -13
-13 -14 -14 -15 -15 -15 -16 -16 -16 -16 -16 -16 -16 -16 -16 -16 -17 -17 -17 -18 -18 -19 -20 -21 -21 -21 -21 -21 -21 -21 -21 -21 -20 -20 -20 -19 -18 -18 -17 -16 -15 -14 -13
-14 -14 -15 -15 -15 -16 -16 -16 -16 -16 -16 -17 -17 -17 -17 -17 -17 -17 -18 -18 -18 -19 -20 -20 -21 -21 -21 -21 -21 -21 -21 -21 -20 -20 -20 -19 -18 -18 -17 -16 -16 -16 -14
-14 -15 -15 -15 -15 -16 -16 -16 -16 -16 -16 -17 -17 -17 -17 -17 -17 -18 -18 -18 -18 -19 -19 -20 -20 -21 -21 -21 -20 -20 -21 -21 -21 -21 -20 -19 -18 -18 -18 -17 -16 -16 -16

GFSMA_700_temp_024.txt.gz
Temp
1 1 1 0 -0 -1 -1 -1 -0 -0 0 1 1 1 1 1 1 1 1 1 1 1 1 1 1 1 1 1 0 0 0 1 1 1 1 1 1 1 1 1 2 2 2
-0 -1 -0 -0 -0 -0 -1 -0 -1 -1 -0 -0 -1 -0 -0 -0 0 0 0 -0 1 0 1 1 1 1 1 1 1 1 -0 -0 -0 0 0 1 1 1 1 1 1 1 1
-0 -1 -1 -1 -1 -1 -1 -0 -1 -1 -1 -1 -1 -1 -1 -1 -1 -0 -1 -1 -1 -0 -1 -1 -1 -0 0 0 0 0 0 -0 -1 -1 -1 -0 0 0 0 0 1 1 1
-0 -1 -1 -0 -0 -1 -1 -0 -1 -1 -1 -1 -1 -1 -1 -1 -1 -1 -1 -1 -1 -2 -2 -1 -2 -2 -2 -1 -1 -0 -0 -0 -1 -1 -1 -1 -1 -0 -0 -0 0 0 1
-1 -0 -0 -0 -1 -1 -1 -1 -2 -2 -2 -2 -2 -2 -2 -2 -2 -2 -2 -2 -2 -2 -2 -2 -2 -3 -3 -3 -3 -2 -2 -1 -1 -1 -1 -2 -2 -1 -1 -1 -0 -0 0
-0 -0 -0 -1 -1 -2 -2 -2 -2 -3 -3 -3 -2 -2 -2 -2 -1 -2 -2 -2 -3 -2 -2 -2 -3 -4 -3 -3 -4 -4 -3 -3 -2 -2 -2 -2 -2 -2 -2 -2 -1 -1 -0
-1 -1 -2 -2 -2 -2 -2 -2 -3 -3 -3 -3 -3 -3 -3 -4 -3 -3 -3 -4 -4 -4 -4 -5 -5 -4 -5 -5 -6 -5 -5 -5 -4 -3 -3 -3 -2 -3 -3 -3 -2 -2 -1
-1 -2 -2 -2 -2 -2 -3 -3 -3 -4 -4 -4 -4 -4 -5 -6 -8 -9 -7 -8 -7 -7 -7 -8 -8 -8 -7 -7 -8 -7 -7 -6 -6 -5 -4 -4 -4 -3 -3 -3 -3 -2 -2
-2 -2 -2 -3 -3 -3 -4 -4 -5 -5 -5 -6 -6 -7 -7 -8 -8 -9 -11 -11 -10 -9 -9 -9 -9 -9 -9 -8 -9 -8 -8 -8 -8 -7 -6 -5 -5 -4 -4 -4 -4 -4 -3
-3 -3 -3 -4 -4 -5 -5 -5 -5 -6 -6 -7 -8 -9 -10 -10 -11 -11 -13 -13 -13 -10 -10 -10 -10 -10 -10 -9 -9 -10 -9 -9 -8 -8 -8 -7 -6 -5 -5 -5 -4 -4 -4
-3 -4 -4 -4 -4 -5 -5 -6 -6 -7 -8 -10 -11 -11 -12 -12 -13 -14 -14 -14 -14 -14 -14 -13 -11 -11 -11 -11 -11 -11 -11 -10 -11 -11 -10 -8 -8 -7 -6 -5 -5 -5 -4
-4 -4 -4 -5 -6 -6 -7 -8 -8 -10 -11 -11 -12 -12 -14 -15 -15 -15 -15 -15 -15 -13 -15 -15 -16 -15 -14 -13 -12 -12 -12 -12 -12 -12 -12 -12 -10 -9 -8 -6 -6 -5 -5
-4 -5 -6 -6 -7 -8 -8 -9 -10 -10 -11 -12 -13 -14 -14 -15 -15 -16 -16 -16 -16 -14 -14 -15 -16 -16 -16 -16 -14 -14 -13 -13 -13 -13 -13 -13 -13 -11 -10 -8 -7 -6 -5
-5 -6 -7 -7 -8 -8 -9 -10 -11 -12 -13 -13 -14 -14 -15 -15 -16 -16 -17 -17 -16 -15 -14 -16 -16 -16 -17 -17 -17 -14 -14 -14 -14 -14 -14 -14 -13 -13 -12 -11 -9 -8 -7
-6 -6 -7 -8 -8 -9 -10 -11 -12 -12 -13 -13 -14 -14 -14 -15 -16 -17 -17 -17 -17 -15 -14 -16 -16 -17 -17 -17 -16 -15 -15 -15 -14 -14 -14 -14 -14 -13 -13 -12 -11 -10 -9
-7 -7 -8 -8 -9 -10 -11 -12 -12 -13 -13 -14 -14 -14 -15 -16 -17 -17 -17 -18 -18 -18 -16 -17 -18 -18 -18 -17 -16 -15 -15 -15 -15 -15 -14 -14 -14 -14 -13 -13 -12 -12 -10
-7 -8 -8 -9 -10 -10 -11 -12 -13 -13 -14 -14 -15 -15 -15 -16 -17 -16 -17 -17 -18 -19 -19 -14 -17 -18 -17 -16 -16 -15 -15 -15 -16 -15 -15 -15 -15 -14 -14 -13 -13 -12 -11
-8 -9 -9 -10 -11 -11 -12 -13 -13 -14 -14 -15 -15 -15 -15 -16 -16 -16 -16 -16 -17 -18 -17 -16 -16 -16 -16 -16 -16 -16 -16 -16 -17 -18 -17 -16 -15 -15 -14 -14 -13 -13 -12
-9 -10 -10 -11 -11 -12 -13 -13 -13 -14 -14 -15 -15 -16 -16 -16 -16 -16 -16 -16 -16 -16 -17 -17 -16 -17 -17 -17 -17 -18 -18 -19 -18 -18 -17 -17 -17 -16 -14 -14 -13 -13 -13
-9 -10 -11 -11 -12 -13 -14 -14 -14 -15 -15 -16 -16 -16 -16 -16 -16 -16 -16 -16 -17 -17 -17 -17 -17 -18 -18 -20 -21 -20 -20 -20 -18 -18 -18 -18 -18 -16 -15 -14 -14 -13 -13
-10 -11 -11 -12 -13 -14 -14 -14 -15 -15 -16 -16 -16 -16 -16 -16 -16 -16 -16 -16 -17 -17 -17 -18 -18 -19 -20 -21 -20 -20 -20 -21 -19 -18 -18 -18 -19 -18 -17 -16 -14 -14 -13
-11 -11 -12 -13 -14 -14 -14 -15 -15 -16 -16 -16 -16 -16 -16 -16 -16 -16 -16 -17 -17 -17 -18 -18 -19 -20 -20 -21 -21 -21 -20 -20 -20 -19 -18 -18 -18 -19 -18 -18 -16 -14 -13
-11 -12 -13 -14 -14 -14 -14 -15 -15 -16 -16 -16 -16 -16 -16 -16 -16 -17 -17 -17 -17 -18 -18 -19 -19 -21 -21 -21 -21 -21 -21 -20 -20 -19 -19 -19 -18 -18 -18 -18 -15 -15 -14
-12 -13 -14 -14 -14 -14 -15 -15 -16 -16 -16 -16 -16 -16 -17 -17 -17 -17 -17 -17 -18 -18 -18 -19 -20 -20 -21 -21 -21 -21 -21 -21 -20 -20 -20 -19 -19 -19 -18 -17 -16 -15 -15
-12 -13 -14 -14 -15 -15 -15 -16 -16 -16 -16 -16 -16 -16 -17 -17 -17 -17 -17 -18 -18 -18 -18 -19 -19 -19 -20 -21 -21 -21 -20 -21 -20 -20 -20 -19 -19 -19 -18 -17 -16 -15 -15
-13 -13 -14 -15 -15 -15 -15 -16 -16 -16 -16 -16 -16 -17 -17 -17 -17 -17 -18 -18 -18 -18 -18 -19 -19 -20 -20 -21 -21 -21 -20 -20 -20 -20 -20 -20 -20 -19 -18 -17 -16 -16 -16

GFSMA_700_temp_027.txt.gz
Temp
1 0 -0 -1 -1 -1 -0 -0 0 -0 0 1 1 1 1 1 0 0 0 0 1 2 1 1 1 1 1 2 1 1 1 1 1 1 1 1 1 1 1 1 1 1 1
1 1 -0 -0 -0 -1 -0 0 0 0 -0 -0 -0 -0 -0 -0 -0 0 0 0 1 0 1 1 1 1 1 1 1 1 1 1 0 -0 0 1 1 0 1 1 1 1 1
2 0 -0 -1 -1 -0 -0 0 0 -0 -1 -1 -1 -1 -0 -0 -1 -1 -1 -1 -1 -0 -0 1 1 0 -0 -0 1 1 1 1 1 0 -1 -1 1 0 0 0 0 1 1
0 -0 -0 -0 -0 -0 -0 -0 -1 -1 -1 -1 -1 -1 -1 -1 -1 -1 -1 -2 -3 -2 -2 -1 -0 -0 -1 -1 -0 -0 -1 -0 -0 0 0 -1 -1 -0 -0 -0 -0 -0 0
0 0 0 0 -0 -0 -1 -0 -1 -1 -1 -1 -1 -1 -1 -1 -1 -1 -1 -2 -3 -4 -4 -3 -3 -1 -2 -2 -1 -2 -2 -1 -2 -2 -1 -0 -1 -2 -1 -0 -1 -1 -0
0 0 0 -0 -1 -1 -1 -1 -1 -1 -2 -2 -2 -1 -1 -2 -3 -3 -3 -5 -6 -5 -6 -5 -4 -5 -5 -3 -4 -5 -4 -3 -3 -3 -3 -2 -2 -1 -2 -2 -1 -1 -1
-0 -1 -1 -1 -1 -1 -1 -2 -2 -2 -2 -2 -2 -3 -2 -3 -4 -5 -8 -8 -6 -6 -7 -7 -8 -8 -7 -8 -7 -7 -6 -7 -6 -5 -4 -4 -4 -3 -2 -3 -3 -2 -2
-1 -1 -1 -2 -2 -2 -2 -3 -3 -3 -3 -4 -4 -4 -4 -4 -5 -8 -8 -8 -9 -10 -11 -11 -10 -10 -10 -9 -10 -9 -9 -8 -8 -7 -7 -6 -6 -5 -4 -3 -3 -3 -2
-2 -2 -2 -2 -2 -3 -3 -4 -4 -4 -4 -5 -5 -6 -6 -7 -8 -8 -9 -10 -11 -11 -12 -12 -13 -12 -12 -12 -11 -12 -10 -10 -9 -8 -8 -8 -8 -7 -6 -5 -4 -4 -4
-2 -2 -2 -3 -3 -4 -4 -4 -5 -5 -5 -6 -7 -8 -9 -11 -12 -11 -12 -12 -12 -13 -13 -13 -13 -13 -14 -12 -14 -13 -12 -10 -10 -10 -9 -9 -9 -8 -7 -7 -6 -5 -5
-2 -3 -3 -3 -4 -4 -4 -5 -5 -5 -6 -7 -8 -11 -12 -13 -13 -13 -14 -14 -14 -13 -13 -14 -14 -14 -14 -15 -15 -15 -15 -12 -11 -11 -10 -10 -10 -9 -9 -8 -7 -7 -6
-3 -4 -4 -4 -5 -5 -5 -6 -7 -8 -8 -9 -11 -13 -13 -14 -14 -14 -14 -14 -14 -14 -14 -14 -14 -15 -15 -15 -15 -15 -15 -14 -12 -12 -12 -11 -11 -11 -10 -9 -8 -8 -7
-4 -4 -4 -5 -5 -6 -7 -7 -8 -10 -10 -11 -12 -13 -13 -14 -15 -15 -15 -15 -15 -14 -14 -15 -15 -15 -15 -15 -16 -16 -16 -15 -14 -13 -13 -12 -12 -12 -12 -11 -10 -9 -8
-4 -4 -5 -5 -6 -6 -7 -8 -9 -11 -12 -12 -12 -12 -13 -14 -14 -15 -15 -15 -15 -14 -15 -16 -16 -16 -16 -16 -16 -17 -16 -15 -14 -13 -13 -13 -13 -12 -13 -13 -12 -11 -11
-4 -5 -5 -6 -7 -7 -9 -9 -11 -11 -12 -12 -12 -13 -13 -14 -15 -15 -15 -16 -16 -15 -15 -16 -17 -17 -17 -17 -17 -17 -16 -15 -14 -14 -14 -14 -13 -14 -14 -14 -13 -12 -12
-5 -6 -6 -7 -8 -8 -9 -10 -11 -12 -12 -13 -13 -14 -14 -14 -14 -15 -16 -16 -17 -16 -16 -16 -17 -17 -17 -18 -18 -17 -15 -15 -14 -14 -14 -14 -14 -14 -14 -14 -13 -13 -12
-6 -6 -7 -8 -8 -9 -10 -11 -12 -12 -13 -13 -14 -13 -14 -14 -15 -16 -16 -17 -17 -17 -17 -16 -17 -17 -17 -17 -16 -16 -16 -15 -15 -15 -15 -15 -14 -15 -14 -14 -14 -13 -13
-6 -7 -7 -8 -9 -10 -10 -11 -12 -13 -13 -13 -14 -14 -15 -15 -16 -16 -16 -16 -16 -16 -17 -17 -15 -16 -16 -16 -16 -16 -16 -18 -17 -16 -17 -17 -16 -15 -15 -15 -14 -14 -13
-7 -8 -9 -9 -10 -11 -11 -12 -13 -13 -14 -14 -15 -15 -15 -15 -15 -15 -16 -16 -16 -16 -16 -16 -16 -16 -16 -17 -17 -18 -19 -19 -19 -19 -18 -17 -17 -17 -17 -16 -15 -14 -14
-8 -9 -9 -10 -10 -12 -12 -13 -13 -14 -15 -15 -15 -15 -15 -15 -15 -16 -16 -16 -16 -16 -16 -17 -17 -17 -17 -18 -19 -19 -19 -19 -19 -20 -19 -18 -17 -17 -17 -17 -16 -15 -14
-8 -9 -10 -11 -11 -12 -12 -14 -14 -14 -15 -15 -15 -15 -16 -16 -16 -16 -16 -16 -16 -16 -17 -17 -17 -17 -18 -19 -20 -19 -19 -19 -19 -20 -19 -18 -17 -17 -17 -17 -16 -16 -14
-9 -10 -11 -12 -12 -13 -13 -14 -14 -14 -15 -15 -16 -16 -16 -16 -16 -16 -16 -16 -16 -17 -17 -17 -17 -18 -19 -20 -20 -20 -20 -20 -20 -19 -19 -18 -18 -17 -17 -17 -17 -16 -15
-10 -11 -12 -12 -13 -13 -13 -14 -14 -15 -15 -16 -16 -16 -16 -16 -16 -17 -17 -17 -17 -17 -17 -17 -17 -18 -20 -20 -20 -20 -20 -20 -20 -19 -19 -19 -18 -18 -18 -18 -18 -17 -16
-11 -12 -12 -13 -13 -13 -14 -14 -15 -15 -16 -16 -16 -16 -16 -16 -17 -17 -17 -17 -17 -18 -18 -18 -18 -18 -19 -19 -20 -20 -20 -20 -20 -20 -20 -19 -19 -18 -18 -18 -18 -17 -16
-12 -12 -13 -13 -13 -14 -14 -15 -15 -15 -16 -16 -16 -16 -16 -17 -17 -17 -17 -17 -17 -18 -18 -18 -18 -18 -19 -19 -20 -20 -21 -21 -20 -20 -19 -19 -19 -19 -18 -18 -18 -17 -16
-12 -12 -13 -14 -14 -15 -14 -15 -15 -16 -16 -16 -16 -16 -16 -17 -17 -17 -17 -17 -17 -18 -18 -18 -18 -19 -19 -19 -21 -21 -20 -20 -20 -19 -19 -19 -19 -19 -18 -17 -17 -17 -16

GFSMA_700_temp_030.txt.gz
Temp
2 2 1 0 0 0 -1 -1 0 -0 -0 -0 -0 0 0 1 1 1 0 1 1 1 1 2 2 2 2 2 1 1 0 0 1 0 0 1 1 1 1 1 1 2 2
1 2 0 0 -0 0 -0 0 0 -0 0 0 0 0 -0 0 0 -0 -0 0 -0 -0 1 1 1 1 1 1 1 1 1 0 -0 -0 -1 -0 0 1 1 1 1 1 1
0 1 1 1 -0 1 1 0 -0 0 0 0 0 -0 -0 -0 -0 -1 -1 -1 -1 -1 -1 -0 0 1 1 1 0 1 1 1 0 -1 -1 -2 -1 -0 0 1 1 0 1
1 1 0 -0 0 1 0 0 0 0 1 0 0 -0 -0 -0 -1 -1 -1 -1 -2 -3 -2 -3 -2 -0 -0 -1 -0 0 0 1 0 -1 -1 -1 -2 -2 -1 -0 0 0 0
0 1 0 1 1 0 0 1 0 0 0 -0 -1 -1 -1 -1 -1 -1 -1 -2 -3 -5 -5 -5 -3 -4 -3 -2 -1 -1 -2 -2 -1 -0 -1 -1 -2 -3 -3 -2 -1 -1 -0
0 0 1 1 0 0 0 -0 -0 -0 -1 -1 -1 -1 -1 -1 -1 -2 -2 -3 -4 -5 -6 -6 -6 -5 -5 -7 -6 -6 -5 -4 -4 -4 -3 -2 -2 -3 -4 -4 -3 -2 -2
1 0 0 0 0 0 -0 -1 -1 -1 -1 -1 -1 -1 -1 -1 -2 -3 -3 -4 -5 -7 -7 -8 -8 -8 -9 -8 -9 -10 -9 -8 -9 -8 -8 -7 -5 -5 -5 -5 -4 -3 -2
0 -0 -0 -1 -1 -1 -1 -1 -1 -2 -2 -2 -3 -2 -2 -2 -3 -3 -5 -6 -7 -8 -9 -10 -10 -11 -11 -11 -11 -11 -11 -11 -11 -10 -9 -9 -8 -7 -7 -6 -6 -5 -4
-1 -1 -1 -1 -1 -1 -2 -2 -2 -2 -3 -3 -4 -4 -4 -4 -5 -6 -7 -8 -8 -8 -10 -11 -12 -12 -13 -13 -13 -12 -13 -12 -12 -11 -11 -10 -10 -9 -9 -8 -7 -6 -6
-2 -1 -2 -2 -2 -2 -2 -3 -3 -3 -4 -4 -5 -6 -7 -8 -8 -8 -10 -10 -11 -12 -12 -12 -13 -13 -13 -13 -13 -14 -13 -14 -13 -12 -11 -10 -10 -10 -10 -10 -9 -8 -7
-2 -2 -2 -2 -3 -3 -3 -3 -3 -4 -4 -5 -6 -7 -8 -9 -11 -11 -11 -11 -12 -12 -12 -14 -14 -14 -14 -14 -14 -15 -15 -14 -13 -13 -12 -12 -11 -11 -10 -10 -11 -9 -8
-2 -3 -3 -3 -4 -4 -4 -4 -5 -5 -6 -7 -8 -9 -11 -12 -12 -13 -12 -13 -13 -12 -13 -13 -14 -14 -14 -14 -15 -15 -15 -15 -15 -15 -14 -12 -12 -12 -12 -11 -11 -11 -9
-2 -3 -4 -4 -4 -4 -4 -5 -6 -7 -8 -8 -10 -11 -12 -12 -13 -13 -13 -13 -13 -13 -14 -14 -14 -14 -14 -15 -15 -16 -16 -16 -16 -15 -14 -13 -13 -13 -12 -12 -12 -12 -11
-3 -3 -4 -4 -4 -5 -5 -6 -7 -8 -8 -10 -11 -11 -12 -12 -12 -13 -14 -14 -14 -14 -14 -14 -14 -15 -15 -15 -16 -16 -15 -15 -15 -15 -14 -14 -14 -13 -13 -12 -12 -12 -12
-4 -4 -4 -5 -5 -5 -6 -7 -8 -9 -10 -11 -11 -12 -12 -13 -13 -13 -14 -14 -15 -15 -14 -14 -14 -15 -16 -16 -16 -15 -15 -15 -14 -14 -14 -14 -14 -13 -13 -13 -13 -13 -13
-4 -4 -5 -5 -6 -6 -7 -7 -9 -10 -11 -11 -12 -13 -13 -13 -14 -14 -14 -14 -15 -16 -15 -15 -15 -16 -16 -16 -15 -15 -15 -15 -15 -15 -15 -14 -14 -14 -13 -13 -13 -13 -13
-5 -5 -5 -6 -7 -8 -8 -9 -10 -11 -11 -11 -12 -13 -14 -13 -14 -14 -14 -15 -15 -16 -16 -15 -16 -16 -16 -16 -16 -15 -15 -15 -15 -15 -15 -15 -15 -14 -14 -14 -14 -14 -14
-6 -6 -6 -7 -8 -8 -9 -10 -10 -11 -12 -12 -13 -14 -13 -14 -14 -15 -15 -15 -15 -16 -16 -16 -15 -16 -16 -16 -16 -16 -16 -16 -16 -16 -16 -16 -17 -16 -16 -15 -16 -15 -15
-7 -7 -7 -8 -8 -9 -10 -11 -12 -12 -13 -13 -13 -14 -14 -14 -15 -15 -15 -15 -15 -16 -16 -16 -16 -16 -16 -16 -16 -16 -17 -17 -18 -18 -18 -18 -18 -18 -17 -17 -16 -16 -16
-8 -8 -8 -9 -9 -10 -11 -12 -13 -13 -13 -14 -14 -14 -14 -15 -15 -15 -15 -16 -16 -16 -16 -16 -16 -16 -17 -17 -17 -17 -18 -18 -19 -19 -19 -19 -19 -18 -17 -17 -17 -17 -17
-9 -9 -9 -9 -11 -11 -12 -12 -13 -13 -14 -14 -14 -15 -15 -15 -15 -15 -16 -16 -16 -16 -16 -16 -17 -17 -17 -17 -17 -18 -19 -19 -19 -19 -19 -19 -19 -18 -18 -17 -17 -17 -17
-11 -9 -10 -11 -11 -12 -12 -13 -14 -14 -14 -15 -14 -15 -15 -16 -16 -15 -16 -16 -17 -17 -17 -17 -17 -17 -17 -17 -18 -19 -19 -20 -19 -19 -20 -19 -19 -18 -18 -17 -17 -17 -16
-10 -10 -10 -11 -12 -12 -13 -13 -14 -14 -14 -15 -15 -15 -15 -16 -16 -16 -17 -17 -17 -17 -17 -17 -17 -17 -18 -18 -19 -19 -19 -19 -20 -19 -20 -19 -19 -18 -18 -18 -17 -17 -17
-10 -11 -11 -12 -12 -12 -13 -14 -14 -14 -15 -15 -15 -15 -16 -16 -16 -17 -17 -17 -17 -17 -18 -18 -18 -18 -18 -19 -19 -19 -20 -20 -20 -20 -20 -19 -19 -19 -18 -18 -18 -18 -18
-10 -11 -12 -12 -13 -13 -13 -14 -14 -15 -15 -15 -16 -16 -16 -16 -16 -17 -17 -17 -17 -17 -18 -18 -18 -18 -18 -19 -19 -20 -20 -20 -20 -20 -20 -19 -19 -19 -18 -18 -18 -17 -17
-11 -11 -12 -13 -14 -13 -14 -14 -15 -15 -15 -15 -16 -16 -16 -16 -16 -17 -17 -17 -17 -17 -18 -18 -18 -18 -18 -19 -19 -20 -20 -20 -20 -20 -20 -20 -19 -19 -19 -18 -18 -18 -17

GFSMA_700_temp_033.txt.gz
Temp
2 2 1 1 0 0 -0 -0 0 1 1 1 1 0 0 1 1 0 0 0 0 0 1 1 2 2 2 2 1 1 1 1 1 1 0 0 0 0 0 0 0 1 1
1 1 1 1 -0 -0 -0 0 0 1 1 1 0 0 0 0 0 -0 -1 -0 -0 -0 0 1 1 2 2 2 1 1 1 1 0 0 0 -0 0 0 0 -0 -0 -0 0
1 0 1 1 0 0 -0 1 1 1 0 0 1 1 1 1 0 -0 0 0 -0 0 0 1 1 1 1 1 1 1 1 1 0 -1 -0 0 0 0 -0 -0 -1 -1 -0
1 1 1 1 1 1 1 1 1 1 1 1 1 1 1 1 1 0 0 0 1 0 0 -0 -0 -1 -0 0 -0 -0 -0 -1 -1 -0 -0 -2 -1 -1 -0 -0 -0 -1 -1
1 2 1 1 1 1 1 1 1 1 1 1 1 1 0 0 0 0 0 -0 -1 -1 -2 -2 -2 -2 -2 -2 -3 -4 -4 -3 -3 -3 -3 -2 -1 -3 -3 -2 -1 -1 -1
2 1 1 1 1 0 0 1 1 1 1 1 1 0 0 -0 -0 -1 -1 -1 -2 -3 -4 -4 -4 -4 -4 -5 -6 -7 -9 -9 -9 -9 -8 -6 -5 -3 -4 -5 -4 -3 -2
1 1 1 0 1 1 0 0 0 -0 -0 -0 -0 -0 -0 -1 -1 -1 -2 -3 -3 -4 -6 -6 -7 -8 -8 -8 -9 -9 -9 -9 -9 -9 -10 -9 -9 -8 -6 -5 -5 -5 -4
0 0 -0 -0 -0 -0 -1 -1 -1 -1 -1 -1 -1 -1 -1 -1 -1 -2 -3 -4 -5 -6 -7 -9 -10 -10 -10 -10 -11 -11 -11 -11 -11 -11 -11 -11 -11 -10 -10 -8 -7 -6 -5
0 -0 -1 -1 -1 -1 -1 -2 -1 -1 -1 -2 -2 -3 -2 -2 -2 -3 -4 -5 -7 -8 -8 -9 -10 -11 -11 -12 -12 -13 -12 -12 -12 -11 -11 -10 -11 -11 -11 -10 -10 -9 -7
-1 -1 -2 -2 -2 -2 -2 -2 -2 -2 -2 -3 -4 -4 -5 -5 -5 -4 -6 -7 -9 -10 -11 -11 -11 -12 -12 -13 -13 -13 -13 -13 -13 -12 -12 -11 -11 -11 -12 -11 -11 -10 -10
-2 -3 -2 -2 -2 -2 -2 -2 -3 -3 -3 -3 -4 -4 -5 -6 -7 -7 -7 -9 -11 -12 -12 -12 -12 -12 -13 -13 -13 -14 -14 -14 -14 -13 -13 -12 -12 -12 -13 -13 -12 -11 -11
-2 -2 -2 -2 -2 -3 -3 -4 -4 -4 -4 -5 -5 -6 -7 -8 -9 -11 -11 -11 -12 -12 -12 -13 -13 -13 -13 -13 -14 -14 -14 -14 -14 -14 -14 -14 -14 -14 -13 -13 -13 -12 -11
-2 -3 -3 -3 -3 -4 -4 -4 -4 -5 -6 -6 -7 -7 -8 -10 -11 -12 -13 -12 -13 -12 -13 -13 -13 -13 -14 -14 -14 -14 -14 -14 -14 -15 -15 -15 -15 -14 -14 -14 -13 -13 -12
-2 -3 -3 -4 -4 -5 -5 -5 -5 -6 -6 -7 -8 -9 -10 -11 -12 -12 -13 -13 -13 -13 -12 -14 -13 -14 -14 -14 -14 -14 -14 -15 -15 -15 -14 -15 -14 -14 -14 -14 -13 -13 -13
-3 -3 -4 -4 -4 -5 -6 -6 -6 -7 -7 -8 -9 -10 -10 -11 -12 -13 -13 -14 -14 -14 -13 -13 -14 -14 -14 -15 -15 -15 -15 -15 -15 -15 -15 -14 -14 -14 -14 -14 -14 -13 -13
-3 -4 -4 -5 -5 -6 -7 -7 -7 -8 -9 -10 -11 -11 -11 -12 -13 -14 -13 -14 -14 -15 -15 -15 -14 -14 -15 -15 -15 -16 -16 -15 -15 -15 -15 -14 -14 -14 -14 -14 -14 -13 -13
-3 -6 -5 -6 -6 -7 -8 -7 -8 -9 -10 -11 -11 -12 -12 -13 -14 -14 -14 -14 -14 -15 -15 -15 -15 -15 -15 -16 -16 -16 -16 -16 -16 -15 -15 -15 -15 -15 -15 -15 -14 -14 -14
-4 -6 -6 -7 -8 -9 -8 -8 -9 -10 -11 -11 -12 -13 -13 -14 -14 -14 -14 -14 -15 -15 -15 -15 -15 -15 -16 -16 -16 -16 -16 -16 -16 -15 -16 -16 -17 -17 -18 -17 -16 -16 -16
-6 -9 -8 -9 -10 -10 -9 -9 -10 -10 -11 -12 -13 -13 -14 -14 -14 -14 -14 -15 -15 -15 -15 -16 -15 -16 -16 -16 -16 -16 -16 -16 -16 -16 -17 -17 -18 -18 -18 -18 -18 -18 -17
-10 -10 -10 -11 -11 -11 -10 -10 -11 -12 -12 -13 -13 -14 -14 -14 -14 -14 -15 -15 -15 -15 -16 -16 -16 -16 -16 -17 -17 -16 -16 -17 -17 -17 -18 -18 -19 -18 -19 -18 -18 -18 -17
-10 -11 -11 -11 -11 -11 -11 -11 -12 -13 -13 -13 -14 -14 -14 -15 -15 -15 -15 -15 -15 -16 -16 -16 -16 -16 -17 -17 -17 -17 -17 -17 -17 -18 -18 -18 -19 -19 -19 -19 -18 -18 -18
-12 -11 -12 -11 -11 -11 -11 -12 -13 -13 -14 -14 -14 -14 -15 -15 -15 -15 -15 -15 -16 -16 -16 -17 -17 -17 -17 -17 -17 -17 -18 -18 -17 -19 -19 -18 -19 -19 -19 -19 -18 -17 -17
-12 -13 -13 -13 -12 -11 -12 -13 -13 -14 -14 -14 -15 -15 -15 -15 -15 -16 -16 -16 -17 -17 -17 -18 -17 -17 -17 -18 -17 -18 -18 -19 -19 -20 -20 -18 -19 -19 -19 -19 -18 -18 -18
-11 -12 -13 -13 -12 -12 -12 -13 -14 -14 -15 -15 -15 -15 -15 -15 -16 -16 -16 -16 -17 -17 -17 -18 -18 -18 -18 -18 -18 -18 -19 -18 -19 -20 -20 -19 -19 -19 -19 -19 -19 -18 -18
-12 -13 -12 -12 -12 -12 -13 -13 -14 -14 -15 -15 -15 -15 -16 -16 -16 -16 -16 -16 -17 -17 -17 -18 -18 -18 -18 -18 -19 -19 -19 -19 -19 -19 -20 -20 -19 -19 -19 -19 -19 -18 -18
-12 -12 -11 -12 -12 -13 -14 -14 -14 -15 -15 -15 -15 -16 -16 -16 -16 -16 -16 -16 -16 -17 -17 -18 -18 -18 -18 -18 -19 -19 -19 -19 -19 -19 -19 -19 -19 -19 -19 -19 -19 -18 -18

GFSMA_700_temp_036.txt.gz
Temp
3 2 1 1 1 1 1 0 1 0 0 0 0 0 1 0 1 1 1 1 1 1 2 2 2 2 2 2 2 2 1 1 1 1 1 1 1 1 1 1 1 1 1
2 1 1 1 1 0 0 -0 -0 0 0 0 0 0 0 0 1 1 1 1 1 1 1 1 1 1 1 2 2 2 2 2 1 1 1 1 0 0 1 1 1 1 0
2 1 1 1 1 1 1 1 1 1 0 0 0 1 1 1 1 1 1 1 0 0 0 0 1 1 1 1 2 2 2 1 1 1 -0 -1 -1 -1 -1 -0 -0 -0 -0
1 1 1 1 1 1 1 1 0 0 0 1 1 0 0 0 0 -0 -0 -0 -0 -0 0 0 0 0 1 1 2 1 1 2 2 2 1 1 -1 -2 -2 -1 -1 -1 -1
1 2 1 1 2 1 1 1 1 1 1 1 1 1 0 -0 -0 -1 -0 -1 -1 -1 -1 -1 -1 -1 -1 -0 -0 -0 -0 -1 -1 -3 -4 -2 -1 -1 -2 -3 -3 -2 -1
2 2 1 2 1 1 0 1 1 1 1 1 0 -0 -1 -1 -1 -1 -1 -1 -2 -2 -3 -3 -3 -3 -4 -4 -4 -5 -6 -7 -8 -8 -9 -9 -8 -7 -5 -3 -4 -4 -3
2 2 1 1 0 0 -0 0 0 0 -0 -1 -1 -1 -1 -1 -1 -2 -2 -2 -3 -3 -4 -5 -5 -6 -7 -8 -8 -8 -9 -10 -10 -10 -10 -10 -10 -9 -9 -8 -5 -5 -4
1 1 1 1 -0 -0 -1 -1 -1 -1 -1 -1 -1 -1 -2 -1 -1 -2 -2 -3 -3 -4 -5 -6 -6 -7 -8 -9 -9 -10 -10 -11 -11 -11 -11 -11 -11 -11 -10 -10 -9 -7 -6
1 0 0 -0 -1 -2 -2 -1 -2 -2 -2 -2 -2 -2 -2 -2 -2 -2 -2 -3 -3 -5 -6 -7 -8 -9 -9 -9 -10 -11 -11 -12 -12 -12 -12 -11 -11 -11 -12 -10 -10 -10 -9
-0 -0 -1 -1 -1 -2 -1 -2 -2 -2 -2 -3 -3 -3 -3 -4 -4 -3 -3 -4 -6 -8 -9 -10 -11 -11 -11 -11 -11 -12 -12 -12 -13 -13 -12 -13 -12 -12 -13 -14 -11 -11 -10
-0 -1 -2 -2 -3 -3 -3 -3 -3 -3 -3 -4 -4 -4 -4 -4 -5 -5 -4 -6 -8 -10 -11 -12 -13 -12 -12 -12 -12 -13 -13 -13 -13 -13 -13 -13 -14 -13 -13 -15 -15 -11 -11
-1 -2 -2 -2 -3 -3 -4 -3 -3 -3 -4 -5 -5 -5 -5 -5 -6 -7 -7 -7 -8 -10 -12 -12 -13 -13 -12 -13 -13 -13 -14 -14 -13 -14 -14 -14 -14 -14 -13 -14 -15 -14 -11
-2 -2 -2 -3 -4 -4 -4 -5 -4 -5 -5 -5 -6 -6 -7 -7 -8 -8 -9 -9 -10 -10 -12 -12 -13 -13 -13 -14 -14 -14 -14 -14 -14 -14 -15 -15 -14 -14 -14 -14 -14 -14 -13
-2 -2 -3 -3 -4 -3 -5 -6 -5 -5 -6 -6 -7 -7 -8 -8 -9 -10 -10 -11 -11 -12 -12 -13 -13 -13 -13 -14 -14 -14 -14 -14 -14 -14 -14 -15 -15 -14 -14 -14 -14 -14 -13
-3 -3 -3 -3 -3 -4 -6 -6 -6 -7 -7 -8 -8 -8 -9 -9 -10 -11 -11 -12 -13 -14 -13 -14 -13 -13 -14 -14 -14 -14 -14 -14 -14 -14 -15 -15 -15 -15 -14 -14 -14 -14 -13
-3 -3 -4 -3 -4 -5 -8 -7 -7 -8 -8 -9 -9 -10 -10 -11 -11 -12 -12 -14 -14 -14 -14 -13 -13 -14 -14 -14 -14 -15 -15 -15 -15 -15 -15 -15 -15 -15 -15 -15 -14 -14 -14
-3 -4 -4 -4 -5 -6 -8 -8 -8 -9 -9 -10 -10 -11 -12 -12 -13 -13 -14 -14 -14 -14 -14 -14 -14 -15 -15 -15 -15 -15 -15 -15 -15 -15 -16 -15 -15 -15 -15 -15 -15 -15 -15
-3 -4 -4 -5 -7 -8 -9 -10 -10 -10 -11 -11 -12 -12 -13 -13 -13 -14 -14 -14 -15 -15 -15 -15 -15 -15 -15 -15 -16 -16 -16 -16 -16 -16 -16 -16 -16 -16 -16 -16 -16 -16 -16
-4 -4 -5 -7 -9 -10 -11 -11 -12 -12 -12 -12 -12 -13 -13 -14 -14 -14 -14 -15 -15 -16 -16 -15 -15 -15 -15 -16 -16 -16 -16 -16 -16 -16 -16 -16 -17 -17 -17 -17 -18 -18 -18
-4 -5 -6 -9 -11 -11 -11 -12 -13 -13 -13 -13 -13 -13 -14 -14 -14 -14 -15 -15 -15 -15 -16 -16 -16 -16 -16 -16 -17 -17 -17 -17 -16 -16 -17 -17 -17 -17 -18 -18 -18 -18 -18
-4 -5 -8 -10 -10 -9 -11 -12 -13 -13 -13 -13 -14 -14 -14 -14 -15 -15 -15 -15 -16 -16 -16 -16 -16 -16 -16 -17 -17 -17 -17 -17 -17 -17 -17 -17 -18 -18 -18 -18 -19 -19 -18
-5 -7 -9 -9 -9 -11 -11 -13 -12 -13 -13 -14 -14 -15 -15 -15 -15 -15 -16 -16 -16 -16 -16 -16 -16 -16 -17 -17 -17 -17 -17 -17 -16 -18 -18 -18 -19 -18 -18 -18 -18 -18 -18
-8 -9 -9 -9 -10 -11 -11 -12 -12 -13 -14 -14 -14 -15 -15 -15 -15 -16 -16 -16 -16 -16 -16 -16 -17 -17 -17 -17 -17 -17 -18 -18 -18 -19 -19 -18 -19 -19 -19 -19 -19 -18 -18
-8 -9 -9 -9 -9 -10 -11 -12 -13 -13 -14 -14 -15 -15 -15 -15 -15 -16 -16 -16 -16 -17 -17 -17 -17 -17 -18 -18 -18 -18 -18 -18 -18 -19 -20 -19 -19 -19 -19 -19 -19 -19 -18
-9 -9 -10 -10 -11 -11 -12 -12 -13 -13 -14 -14 -15 -15 -15 -15 -16 -16 -16 -16 -16 -17 -17 -17 -17 -18 -18 -18 -18 -18 -18 -18 -18 -19 -20 -19 -19 -19 -19 -19 -19 -19 -19
-9 -10 -11 -11 -11 -11 -12 -13 -13 -14 -15 -15 -15 -15 -15 -15 -16 -16 -16 -16 -16 -16 -17 -17 -17 -18 -18 -18 -19 -18 -18 -18 -19 -19 -20 -18 -18 -19 -18 -18 -19 -19 -19

GFSMA_700_temp_039.txt.gz
Temp
2 2 2 1 1 1 1 1 1 0 0 0 0 -0 -0 -0 -0 0 1 1 1 1 1 1 2 2 2 2 2 2 1 1 1 2 1 1 1 1 1 2 1 0 0
2 2 1 1 1 1 0 0 1 0 -0 -0 -0 -0 -0 0 0 1 1 1 1 1 1 1 1 1 1 1 2 2 2 2 2 1 2 2 2 2 2 1 1 1 1
2 1 1 1 1 1 0 0 0 -0 -0 -0 -0 -0 0 1 1 1 1 1 1 1 1 1 1 1 1 1 1 1 1 2 2 2 2 2 1 1 2 2 2 1 1
1 1 1 1 1 0 -0 -0 -0 -1 -0 -0 -0 0 0 1 1 1 1 1 1 1 0 0 0 0 0 -0 -0 0 0 1 1 1 1 1 1 1 1 0 1 2 1
1 1 1 0 0 -0 -0 -0 -1 -1 -0 0 0 0 1 1 1 0 0 -0 -0 -0 -0 -0 -1 -1 -0 -0 -0 -0 -1 -1 -2 -2 -2 -2 -1 -0 1 1 0 -1 0
2 1 1 1 0 -0 -0 -1 -1 -1 0 0 0 0 0 0 -0 -1 -1 -1 -1 -2 -2 -2 -2 -2 -2 -2 -2 -2 -3 -4 -4 -5 -6 -5 -5 -5 -6 -6 -6 -4 -2
1 1 1 0 0 0 -0 -0 -0 -0 -0 0 0 -0 -1 -1 -1 -1 -1 -2 -2 -2 -2 -3 -3 -3 -4 -4 -5 -5 -5 -6 -6 -7 -8 -8 -9 -9 -9 -9 -9 -8 -7
2 1 1 1 0 -0 -0 0 -0 -1 -1 -1 -1 -1 -1 -2 -2 -2 -2 -2 -3 -4 -4 -4 -4 -5 -6 -6 -6 -7 -8 -8 -8 -9 -10 -10 -11 -11 -10 -10 -10 -10 -9
1 1 1 0 -0 -0 -0 -1 -1 -1 -1 -2 -2 -2 -2 -2 -3 -3 -3 -4 -4 -4 -5 -5 -6 -6 -7 -8 -9 -9 -10 -10 -11 -11 -11 -12 -12 -12 -11 -11 -11 -10 -10
1 1 0 -0 -1 -1 -1 -2 -3 -2 -2 -3 -3 -3 -3 -4 -4 -4 -4 -5 -5 -6 -7 -8 -9 -9 -10 -10 -11 -11 -12 -12 -12 -12 -12 -13 -13 -12 -12 -12 -11 -11 -10
0 -0 -1 -1 -2 -2 -2 -2 -3 -3 -3 -3 -4 -4 -5 -5 -5 -5 -5 -6 -6 -8 -9 -10 -11 -12 -12 -12 -13 -13 -12 -12 -13 -13 -13 -13 -13 -13 -13 -12 -12 -12 -11
-0 -1 -1 -2 -2 -2 -3 -3 -3 -4 -5 -5 -6 -5 -6 -6 -6 -7 -7 -7 -8 -9 -10 -11 -13 -13 -13 -13 -13 -13 -13 -13 -13 -13 -13 -13 -13 -13 -13 -13 -13 -12 -12
-1 -2 -2 -2 -2 -3 -3 -3 -4 -4 -6 -6 -7 -7 -7 -7 -8 -8 -8 -9 -9 -9 -10 -12 -13 -13 -14 -14 -14 -14 -13 -13 -13 -14 -13 -14 -13 -14 -14 -13 -13 -13 -13
-2 -2 -2 -3 -3 -3 -3 -5 -5 -5 -7 -8 -8 -8 -8 -8 -8 -9 -9 -10 -10 -10 -11 -12 -14 -14 -14 -14 -14 -14 -13 -14 -14 -14 -14 -14 -14 -14 -14 -14 -14 -14 -13
-2 -2 -2 -3 -3 -3 -4 -4 -5 -6 -9 -9 -9 -9 -9 -9 -9 -10 -10 -11 -12 -12 -12 -13 -14 -14 -14 -14 -14 -14 -14 -14 -14 -14 -14 -14 -14 -15 -15 -15 -14 -14 -14
-2 -2 -3 -3 -3 -4 -5 -5 -5 -8 -9 -10 -10 -10 -10 -10 -11 -11 -12 -12 -13 -13 -14 -14 -14 -14 -14 -14 -14 -14 -14 -14 -15 -15 -15 -15 -15 -15 -15 -15 -15 -15 -14
-3 -3 -4 -4 -4 -5 -5 -5 -8 -9 -9 -10 -11 -11 -11 -11 -12 -12 -13 -13 -14 -14 -14 -14 -14 -14 -14 -15 -15 -15 -15 -15 -15 -16 -15 -15 -16 -16 -16 -16 -15 -15 -15
-3 -4 -4 -5 -5 -5 -5 -7 -9 -9 -9 -11 -12 -12 -12 -12 -13 -13 -13 -14 -14 -15 -15 -14 -14 -15 -15 -15 -15 -15 -16 -16 -16 -16 -16 -16 -16 -16 -16 -15 -15 -15 -15
-3 -4 -4 -5 -5 -5 -7 -9 -9 -9 -11 -12 -12 -12 -12 -13 -13 -14 -14 -15 -15 -15 -15 -15 -15 -15 -15 -16 -16 -16 -16 -16 -16 -16 -17 -16 -16 -16 -16 -16 -16 -16 -17
-3 -4 -4 -5 -5 -6 -9 -9 -9 -10 -11 -11 -12 -13 -13 -13 -14 -14 -15 -15 -15 -15 -15 -16 -16 -16 -16 -16 -16 -16 -16 -17 -16 -17 -17 -16 -17 -17 -17 -17 -17 -17 -18
-4 -4 -5 -5 -8 -9 -9 -9 -10 -10 -11 -12 -12 -12 -13 -14 -14 -15 -15 -15 -15 -15 -16 -16 -16 -16 -16 -16 -16 -17 -17 -17 -17 -17 -17 -17 -18 -18 -18 -18 -18 -17 -18
-4 -4 -6 -8 -8 -9 -9 -9 -10 -11 -11 -11 -12 -13 -14 -14 -14 -15 -15 -15 -15 -16 -16 -16 -16 -16 -16 -16 -17 -17 -17 -17 -16 -18 -17 -17 -19 -19 -19 -19 -18 -18 -18
-6 -7 -7 -8 -8 -9 -10 -10 -10 -10 -11 -12 -12 -13 -14 -14 -15 -15 -15 -16 -16 -16 -16 -16 -16 -16 -16 -17 -17 -17 -17 -18 -18 -18 -18 -17 -19 -19 -19 -19 -19 -18 -18
-6 -7 -8 -9 -9 -9 -10 -10 -11 -11 -11 -12 -13 -14 -14 -14 -15 -15 -15 -16 -16 -17 -17 -17 -16 -16 -16 -17 -17 -17 -17 -17 -18 -19 -19 -18 -19 -19 -19 -19 -19 -19 -19
-7 -7 -8 -9 -10 -10 -11 -11 -11 -11 -11 -12 -13 -14 -14 -15 -15 -15 -16 -16 -16 -17 -17 -17 -17 -16 -16 -17 -17 -17 -18 -18 -18 -19 -20 -19 -19 -19 -18 -19 -19 -19 -19
-8 -8 -9 -10 -10 -11 -11 -11 -11 -12 -12 -13 -13 -14 -15 -15 -15 -16 -16 -16 -17 -17 -17 -17 -17 -17 -17 -17 -17 -17 -18 -18 -18 -18 -19 -19 -19 -19 -18 -18 -19 -19 -19

GFSMA_700_temp_042.txt.gz
Temp
2 1 1 2 1 1 1 1 0 0 0 0 0 0 -0 -0 -0 0 0 0 0 0 1 1 1 1 1 1 2 2 2 2 2 2 2 2 2 2 2 2 2 2 2
1 1 1 1 1 1 0 -0 -0 -0 0 -0 -1 -0 -0 -0 0 0 0 0 0 0 0 0 0 1 1 1 1 1 2 2 2 2 2 1 1 1 2 2 2 2 2
1 1 1 0 -0 0 -0 -1 -0 -1 -1 -1 -1 -0 -0 0 -0 0 0 0 0 0 0 -0 -0 -0 0 0 1 1 1 1 1 1 1 1 2 2 1 1 1 2 2
1 0 0 -0 -0 -1 -1 -1 -1 -1 -1 -1 -1 -1 -0 -0 0 0 0 0 0 -0 -0 -0 -0 -0 -0 -0 -0 -0 0 0 1 1 1 1 1 1 1 1 1 0 1
1 0 0 0 -1 -1 -1 -1 -1 -1 -1 -1 -1 -1 -1 -0 0 0 -0 -0 -1 -1 -1 -1 -1 -1 -1 -1 -1 -1 -1 -1 -0 -0 -0 -0 -0 0 0 1 1 1 1
1 -0 0 0 -1 -1 -1 -1 -1 -1 -1 -1 -1 -1 -1 -0 -0 -0 -0 -1 -1 -1 -1 -2 -2 -2 -2 -2 -2 -2 -2 -2 -2 -3 -3 -3 -3 -3 -1 -1 -1 -1 -2
0 -0 0 -0 -0 -1 -1 -1 -1 -1 -1 -1 -1 -1 -1 -0 -1 -1 -1 -1 -2 -2 -2 -2 -2 -3 -3 -3 -3 -4 -4 -5 -5 -6 -6 -7 -7 -7 -6 -5 -4 -4 -4
0 -0 0 0 -0 -1 -1 -1 -1 -1 -0 -1 -1 -1 -1 -1 -1 -2 -2 -2 -2 -2 -3 -3 -3 -4 -4 -4 -5 -6 -6 -7 -8 -9 -9 -10 -10 -10 -10 -10 -9 -8 -8
0 1 0 -0 -0 -1 -1 -1 -1 -1 -1 -2 -2 -3 -2 -2 -2 -2 -2 -3 -3 -3 -4 -4 -4 -4 -5 -5 -6 -7 -8 -9 -10 -11 -11 -11 -12 -12 -11 -11 -11 -11 -11
1 1 0 0 -0 -0 -1 -1 -1 -2 -2 -3 -3 -3 -3 -3 -3 -3 -4 -4 -5 -5 -5 -6 -6 -7 -7 -8 -8 -9 -9 -10 -11 -12 -12 -12 -12 -12 -12 -12 -12 -12 -11
1 1 0 0 -0 -1 -1 -1 -2 -3 -3 -3 -3 -4 -4 -4 -5 -6 -5 -6 -6 -7 -7 -7 -8 -9 -9 -9 -10 -11 -11 -12 -12 -13 -13 -13 -12 -12 -12 -12 -12 -12 -12
1 0 -0 -1 -1 -1 -2 -3 -3 -3 -4 -4 -4 -5 -5 -5 -6 -7 -6 -7 -8 -8 -8 -9 -10 -10 -10 -11 -12 -13 -13 -13 -13 -13 -13 -13 -13 -13 -13 -13 -12 -12 -12
0 0 -0 -1 -1 -2 -3 -3 -4 -3 -4 -4 -5 -5 -6 -8 -8 -8 -9 -9 -10 -10 -10 -10 -10 -12 -12 -13 -14 -14 -14 -14 -14 -14 -14 -13 -13 -13 -13 -13 -13 -13 -13
-0 -1 -1 -1 -2 -2 -2 -4 -4 -4 -3 -5 -5 -7 -8 -8 -9 -10 -10 -10 -10 -11 -11 -11 -12 -13 -14 -15 -14 -14 -14 -14 -14 -14 -14 -14 -14 -13 -13 -13 -13 -13 -13
-1 -2 -1 -2 -3 -4 -3 -3 -5 -5 -5 -5 -7 -8 -8 -9 -11 -11 -11 -11 -11 -11 -11 -12 -13 -14 -14 -15 -15 -14 -14 -14 -14 -14 -14 -14 -14 -14 -14 -14 -14 -14 -14
-2 -2 -3 -2 -3 -3 -3 -4 -5 -5 -5 -7 -8 -8 -8 -10 -10 -11 -12 -12 -12 -13 -13 -13 -14 -14 -14 -14 -14 -15 -15 -15 -14 -14 -15 -15 -15 -15 -15 -15 -15 -15 -15
-2 -3 -3 -3 -3 -4 -4 -4 -5 -5 -7 -8 -8 -8 -9 -10 -11 -12 -12 -12 -13 -13 -13 -14 -14 -14 -15 -15 -15 -15 -15 -15 -15 -15 -15 -15 -16 -16 -16 -16 -16 -15 -15
-2 -3 -4 -4 -3 -4 -5 -5 -5 -7 -8 -8 -9 -9 -10 -11 -11 -12 -12 -13 -13 -14 -14 -14 -14 -15 -15 -15 -15 -15 -15 -16 -16 -16 -16 -16 -16 -16 -16 -16 -16 -15 -15
-3 -3 -4 -4 -4 -5 -5 -5 -7 -8 -8 -9 -9 -11 -11 -11 -11 -12 -13 -13 -14 -14 -15 -15 -15 -15 -15 -15 -15 -16 -16 -16 -17 -17 -17 -17 -17 -17 -16 -16 -16 -16 -16
-3 -3 -3 -3 -4 -5 -7 -7 -7 -8 -9 -9 -10 -10 -11 -11 -12 -12 -13 -14 -14 -15 -15 -15 -15 -15 -16 -15 -16 -15 -16 -16 -17 -17 -18 -17 -17 -17 -17 -17 -17 -17 -17
-3 -2 -4 -4 -6 -7 -7 -7 -8 -9 -9 -10 -11 -11 -11 -11 -12 -13 -14 -14 -15 -15 -15 -15 -15 -16 -16 -16 -15 -16 -16 -16 -17 -18 -18 -17 -18 -18 -18 -17 -17 -18 -17
-3 -3 -4 -6 -7 -7 -7 -8 -8 -10 -10 -11 -11 -11 -11 -12 -13 -13 -14 -15 -15 -15 -15 -15 -16 -16 -16 -16 -16 -16 -16 -16 -17 -18 -17 -17 -18 -18 -18 -18 -18 -18 -17
-4 -5 -6 -7 -7 -7 -8 -9 -10 -10 -11 -11 -11 -11 -12 -13 -13 -14 -14 -15 -15 -15 -15 -16 -16 -16 -16 -16 -16 -16 -16 -16 -17 -18 -17 -17 -18 -18 -18 -19 -18 -18 -18
-6 -6 -7 -7 -8 -8 -9 -10 -10 -10 -11 -11 -12 -12 -12 -13 -14 -14 -15 -15 -15 -16 -16 -16 -16 -16 -16 -16 -16 -16 -16 -16 -17 -18 -19 -17 -18 -18 -18 -19 -19 -18 -18
-6 -7 -7 -9 -9 -10 -10 -10 -10 -11 -11 -12 -12 -12 -13 -13 -14 -15 -15 -15 -16 -16 -16 -16 -17 -17 -17 -17 -16 -16 -16 -16 -16 -18 -19 -18 -18 -18 -18 -19 -19 -19 -19
-7 -8 -9 -9 -10 -10 -10 -11 -11 -12 -12 -12 -12 -13 -13 -14 -15 -15 -15 -16 -16 -17 -16 -17 -17 -17 -17 -17 -17 -17 -17 -16 -17 -17 -18 -18 -19 -19 -18 -18 -18 -19 -19